GEFSMA_500_meanwind_150.txt.gz
Wind_Speed
11 10 10 9 9 8 7 6 6 6 6 6 5 4 4 4 3 4 4 5 5 5 5 5 5 6 6 7 6 6 6 6 6 5 5 5 5 5 5 5 5 5 5
11 10 10 10 9 8 7 7 7 6 6 5 5 5 4 4 4 5 5 5 5 5 5 5 6 6 6 6 6 6 7 6 6 6 6 7 7 7 7 7 7 6 7
13 11 10 10 10 9 8 7 7 7 6 5 5 4 4 4 4 5 5 5 5 5 5 5 6 6 5 6 6 6 6 6 6 7 6 7 7 8 9 9 8 8 8
14 12 10 10 9 9 8 7 7 7 6 5 4 4 4 4 4 4 5 5 5 5 5 6 6 6 5 5 6 5 5 5 6 7 7 8 8 8 9 9 9 9 9
14 13 11 10 9 9 8 7 7 6 6 5 4 4 4 4 4 4 4 4 5 5 5 6 6 5 5 6 7 7 6 7 7 7 8 8 8 9 9 9 10 10 10
14 13 12 11 10 9 8 7 7 6 5 5 4 4 4 4 3 3 4 4 4 4 5 5 5 5 5 5 6 7 7 7 7 8 8 8 9 9 9 9 9 10 11
14 14 13 12 11 10 9 8 7 6 5 5 4 3 2 2 2 2 3 3 3 4 4 4 4 4 5 6 6 7 7 7 7 8 8 8 9 9 9 10 10 10 11
15 14 14 13 12 11 10 9 8 7 6 5 4 3 2 1 1 2 2 3 4 4 4 4 3 4 4 5 6 7 7 7 7 8 8 8 9 9 9 9 10 10 10
17 16 15 14 13 12 11 10 9 7 6 5 4 3 2 2 1 1 2 3 4 4 4 4 4 5 5 6 6 7 7 7 7 7 7 8 8 9 9 10 10 11 11
16 16 15 15 13 12 11 10 9 8 7 5 4 3 2 2 1 1 2 3 4 4 4 5 5 6 6 6 6 7 7 7 7 8 8 8 9 9 9 10 10 11 12
16 16 15 15 13 12 11 10 9 8 7 6 5 4 3 3 2 2 3 3 4 4 5 5 5 6 6 7 7 7 7 8 8 9 9 9 10 10 10 11 11 12 12
18 17 16 15 14 13 12 11 10 9 8 7 6 5 4 3 3 3 4 4 4 5 5 5 6 6 7 7 8 8 8 9 9 10 10 10 11 11 12 12 12 13 13
18 17 17 16 15 14 13 12 11 10 9 8 7 6 5 5 5 5 5 5 6 6 6 6 7 7 7 8 9 9 10 10 11 11 12 13 13 13 14 14 14 14 15
19 19 18 17 16 14 14 13 12 11 10 9 8 7 7 6 6 6 7 7 7 7 7 7 8 8 9 9 10 11 12 13 13 14 14 15 15 16 16 16 17 17 17
19 19 18 17 16 15 15 14 13 12 11 11 10 9 8 7 7 8 8 8 8 8 9 9 10 11 12 12 13 14 15 15 16 16 17 17 18 18 19 19 19 20 20
18 19 19 18 18 17 16 15 14 13 12 12 11 10 10 9 9 9 10 10 10 11 11 12 12 13 14 15 16 17 17 18 18 19 20 20 20 21 21 21 22 22 22
18 19 19 19 18 17 16 16 15 14 13 13 12 11 11 11 11 11 12 12 13 13 14 15 15 16 17 18 18 19 20 20 21 22 22 22 23 23 23 24 24 25 25
17 18 19 19 18 17 17 16 15 15 14 14 13 13 13 13 13 14 14 15 15 16 17 17 18 19 20 21 21 22 22 23 23 24 24 25 26 26 26 27 27 28 28
18 18 18 18 18 18 17 17 17 16 16 15 15 14 15 15 16 16 17 17 18 19 19 20 21 22 23 23 24 25 25 26 26 27 27 27 28 29 29 30 30 31 31
17 17 17 18 18 19 18 17 18 18 17 17 17 17 17 17 18 19 19 20 21 21 22 23 24 25 25 26 26 27 27 28 29 30 30 30 31 31 32 33 34 34 34
18 17 17 18 18 18 18 19 19 19 19 19 19 19 20 20 21 21 22 23 23 24 25 26 27 27 28 29 29 30 31 32 32 33 33 33 34 34 35 36 36 37 37
18 18 18 18 18 18 19 19 19 20 21 21 21 22 22 23 23 24 25 26 26 27 28 29 29 30 31 32 33 34 35 35 35 37 38 37 38 38 38 39 40 39 40
18 19 19 18 18 19 20 20 21 21 22 23 23 24 24 25 25 27 28 28 29 30 31 32 32 33 34 35 36 37 38 38 38 39 41 41 42 42 42 43 44 44 44
17 18 18 19 19 20 21 22 22 23 24 24 25 26 26 27 28 29 29 30 31 32 33 34 35 36 37 38 38 39 40 41 41 42 44 44 44 45 45 45 46 46 46
18 19 20 20 20 21 22 23 24 24 25 26 26 27 28 29 30 31 32 32 33 34 35 36 37 38 38 39 40 41 42 43 44 44 46 47 47 48 47 47 48 48 48
20 20 21 22 23 23 25 25 26 27 27 27 29 30 31 32 32 33 34 34 35 36 37 38 39 39 40 41 42 43 44 46 46 46 48 49 49 50 49 48 49 50 50

GEFSMA_500_meanwind_156.txt.gz
Wind_Speed
8 8 8 7 6 5 5 4 4 4 4 3 3 4 4 4 3 2 1 1 1 2 2 2 2 2 2 2 1 1 2 2 2 3 3 3 3 3 4 4 5 5 5
10 9 8 8 7 6 6 5 5 5 5 4 4 3 3 3 3 3 2 2 2 3 3 3 2 1 1 1 1 2 2 2 2 3 3 4 4 4 5 6 6 6 7
11 10 9 9 8 7 7 7 6 6 6 5 5 5 4 4 3 3 3 3 3 3 3 2 2 2 2 1 1 2 2 2 2 3 3 4 5 5 6 7 7 8 8
11 10 10 9 9 8 8 7 7 7 6 6 5 5 4 4 3 3 3 3 3 2 2 2 2 2 3 2 2 2 2 2 3 3 4 5 5 6 7 7 7 8 8
12 11 10 9 9 9 9 8 8 8 7 6 5 4 4 4 3 3 3 3 2 2 1 1 1 2 2 2 2 2 2 3 3 3 4 4 5 5 6 6 7 7 8
13 12 11 10 9 9 9 8 8 8 7 6 5 5 4 4 3 3 2 2 1 1 1 1 2 2 1 2 2 2 2 2 3 4 4 4 5 6 6 7 7 8 8
13 13 12 11 10 10 10 9 9 8 7 6 6 5 5 4 4 2 2 1 1 0 0 1 2 2 2 2 2 1 2 2 3 4 4 4 5 5 6 6 7 8 8
15 14 14 13 12 11 11 10 9 9 8 7 7 6 5 4 4 3 2 2 1 1 0 1 1 1 2 1 2 2 2 3 3 3 3 4 5 5 5 6 7 8 9
15 14 14 14 13 12 12 11 10 10 9 8 7 6 6 5 5 3 2 2 1 0 0 1 1 1 1 1 1 2 2 2 2 3 3 4 4 5 6 6 7 8 9
15 15 14 14 13 13 12 12 12 11 10 8 8 7 7 6 5 5 3 2 1 1 0 1 1 1 1 1 1 2 2 2 3 3 4 4 5 5 6 7 7 8 9
15 16 15 15 14 14 13 13 13 12 11 10 10 9 8 7 6 6 5 3 2 1 1 1 1 1 2 2 2 2 3 3 3 4 4 5 6 7 7 8 9 9 10
16 15 15 15 16 15 15 14 13 13 13 12 11 10 9 8 7 6 6 5 4 3 3 3 3 3 3 2 2 3 4 4 5 5 6 7 8 8 9 9 10 10 11
17 17 16 17 16 16 15 15 14 14 13 13 13 12 11 9 8 8 7 6 5 5 4 4 5 4 4 4 5 5 5 6 6 7 8 9 9 10 10 11 12 12 13
18 18 18 17 17 17 16 16 15 14 14 15 14 13 12 11 10 9 8 7 6 6 6 6 6 6 6 6 6 7 7 8 8 9 10 11 11 12 12 13 14 14 15
19 19 19 18 18 18 17 17 16 15 15 15 15 14 13 12 11 10 9 8 8 7 7 7 7 7 8 8 9 10 10 11 11 12 13 13 14 14 15 15 16 17 18
19 20 20 19 19 18 18 18 17 16 16 16 16 15 14 14 13 11 11 10 10 9 9 9 9 10 10 11 11 12 13 14 14 15 15 15 16 16 17 18 19 20 20
19 19 19 19 19 19 19 19 18 17 17 17 17 16 16 15 14 13 13 12 11 11 11 11 12 12 13 13 14 15 16 16 17 17 18 18 19 19 20 21 22 22 23
18 19 20 19 19 19 19 20 20 19 18 17 17 17 16 15 15 15 14 14 13 14 14 14 15 15 16 16 17 18 18 19 19 20 20 21 21 22 23 23 24 25 25
17 18 20 19 19 20 20 20 21 21 20 19 18 18 17 16 16 16 16 16 16 16 16 17 18 18 19 19 20 20 21 21 22 23 24 24 25 25 26 27 28 28 29
18 19 19 20 19 20 20 21 21 21 21 20 19 19 19 18 18 18 18 18 19 19 19 20 21 21 22 23 23 24 24 25 25 26 27 28 28 29 30 31 32 33 34
18 19 20 20 20 20 21 21 21 21 21 21 20 20 20 20 20 20 20 21 21 22 22 23 23 24 25 25 26 27 27 28 28 29 30 30 31 32 33 34 36 37 38
19 19 20 20 21 22 21 21 21 22 22 22 22 22 22 22 22 22 23 23 24 24 25 25 26 26 27 28 29 29 29 30 30 32 32 33 34 35 36 37 39 40 41
19 20 21 21 22 23 22 22 23 23 24 24 24 24 24 24 24 24 25 25 26 26 27 27 28 29 29 30 31 31 31 31 32 34 35 35 37 38 39 40 42 43 44
18 19 21 22 23 23 24 24 24 24 24 25 25 25 25 25 26 26 27 27 28 28 29 30 30 31 32 32 33 33 34 34 35 37 39 38 39 41 41 42 43 44 45
18 20 21 21 23 23 24 25 25 25 25 26 27 27 27 27 27 28 29 29 30 31 31 31 32 33 34 35 36 37 38 38 38 40 42 42 42 43 43 43 45 47 48
20 20 21 22 23 24 24 24 25 26 26 26 27 28 29 29 30 30 31 31 32 33 34 34 34 36 37 37 38 39 41 42 43 42 44 45 45 46 45 45 47 48 48

GEFSMA_500_meanwind_162.txt.gz
Wind_Speed
6 5 5 4 3 3 3 2 3 3 3 2 2 2 2 2 2 1 1 1 1 1 1 1 1 2 2 2 1 1 1 2 3 3 3 3 3 3 3 3 4 4 4
8 6 5 5 5 4 4 4 4 4 3 3 3 2 2 2 3 2 1 1 1 1 1 2 2 2 2 2 2 2 2 2 3 3 4 4 4 4 4 5 5 5 5
9 8 7 6 6 5 5 5 4 4 4 4 3 3 3 2 2 2 2 2 2 2 2 2 2 2 2 2 2 2 2 2 3 4 4 4 5 5 5 5 5 6 6
11 10 9 8 7 7 7 6 5 5 5 4 4 4 4 3 3 2 2 2 3 3 3 2 2 2 2 2 2 3 2 3 3 4 4 5 5 5 6 6 6 6 7
11 11 11 10 8 8 8 8 7 7 6 5 4 4 4 3 3 3 2 2 2 2 2 1 1 2 2 2 3 3 3 3 3 4 5 5 6 6 6 6 6 6 7
12 12 12 10 10 9 9 9 8 8 7 6 5 5 5 4 4 3 2 2 2 2 2 2 2 2 3 3 3 3 3 3 3 4 4 5 5 6 6 7 7 7 7
13 13 13 11 10 9 9 9 9 9 8 7 6 6 6 5 4 4 3 3 2 3 3 3 3 3 3 4 4 3 3 3 4 4 4 5 5 6 6 7 7 8 8
14 14 14 12 11 11 10 10 10 10 10 9 8 7 6 6 4 4 4 3 2 2 3 3 3 3 3 3 3 3 3 4 4 4 4 4 5 6 6 7 8 8 9
15 15 15 14 13 12 11 11 12 12 11 10 9 8 8 7 6 5 5 4 3 3 3 3 3 3 3 3 3 3 3 4 5 5 5 5 6 6 7 8 8 9 9
15 15 15 15 14 14 14 13 13 13 12 11 10 10 9 8 7 7 6 4 4 3 3 3 3 4 4 4 4 4 4 4 4 5 5 6 7 7 8 8 9 10 10
17 16 16 17 16 16 15 15 15 14 13 13 12 11 11 10 10 8 7 6 5 5 4 4 4 4 4 4 5 4 5 5 5 6 7 7 8 8 9 9 10 11 12
18 18 18 18 18 18 17 17 16 16 15 14 14 13 12 12 11 10 9 8 7 7 6 5 5 5 5 5 5 6 6 6 7 7 8 9 9 10 10 11 12 12 13
18 19 19 19 19 19 18 18 18 17 16 16 15 14 14 13 12 12 11 10 9 9 8 8 8 7 7 7 7 7 8 8 8 9 10 10 11 11 12 13 14 14 15
20 20 20 20 19 20 20 19 19 18 17 16 16 16 15 15 14 14 13 12 11 11 10 10 9 9 9 9 9 9 9 10 11 11 12 12 13 13 14 15 15 16 17
21 21 21 21 20 21 21 20 19 19 18 18 17 17 16 16 16 15 14 14 13 12 12 12 12 11 11 11 12 12 12 13 13 14 14 15 15 16 17 17 18 18 18
21 21 21 22 21 21 21 21 20 20 19 18 18 18 18 18 17 17 16 16 15 15 15 15 14 14 14 14 13 13 14 15 16 17 17 17 18 18 19 20 20 21 21
20 20 21 22 22 22 21 21 21 21 20 19 19 19 19 18 18 18 17 17 17 17 17 16 16 16 16 16 16 16 17 18 19 19 20 20 21 21 22 22 23 23 24
21 21 20 22 23 23 22 22 23 22 21 20 20 20 20 19 20 19 19 19 18 18 18 18 18 18 18 19 19 20 20 21 21 22 23 23 24 24 25 25 25 26 27
21 22 22 21 22 22 22 23 23 23 22 21 21 21 21 21 21 20 20 20 20 20 20 20 20 21 21 22 22 23 23 24 24 25 25 26 27 27 28 28 29 30 31
19 20 22 21 21 22 21 22 23 23 23 22 22 22 22 22 22 22 21 22 22 22 22 22 23 23 24 24 25 25 26 26 27 28 29 30 30 31 31 31 32 33 34
19 21 21 21 22 22 22 22 23 24 23 24 24 23 23 23 23 24 23 23 24 24 24 24 25 25 26 26 27 28 28 29 30 31 31 32 32 33 33 34 35 36 37
18 20 21 21 22 22 22 23 23 23 24 24 25 24 24 24 25 25 25 25 25 25 26 26 27 27 28 29 30 30 31 31 32 33 33 34 36 36 36 37 37 38 39
19 19 20 21 22 22 23 23 24 24 24 25 25 25 25 25 26 26 27 28 27 27 27 28 28 28 29 30 31 32 33 34 34 35 36 37 38 38 39 39 41 42 43
18 18 19 20 21 22 23 24 25 25 25 25 26 27 27 27 28 29 29 30 30 29 30 30 30 31 31 32 32 33 34 35 36 37 38 38 39 40 41 42 43 44 45
18 18 19 20 21 22 23 24 25 26 26 26 27 28 29 29 30 30 31 31 32 31 32 32 33 34 35 35 35 36 37 38 39 40 42 42 42 43 43 45 47 49 49
18 19 19 20 21 23 24 25 26 26 26 27 28 29 30 30 31 32 33 33 33 33 33 34 35 36 37 38 39 40 41 42 42 43 44 45 45 46 47 47 49 51 52

GEFSMA_500_meanwind_168.txt.gz
Wind_Speed
9 8 7 7 7 6 6 5 5 5 5 4 4 3 3 2 2 1 1 1 1 1 1 2 2 3 2 2 2 2 2 3 3 3 4 4 4 4 3 2 2 2 3
10 9 8 7 7 7 7 6 6 6 6 5 4 4 3 2 2 2 2 1 1 1 2 2 2 3 3 3 3 3 3 3 4 4 4 4 4 4 3 4 4 4 4
11 10 9 8 8 8 8 7 7 6 6 6 5 4 4 3 3 3 2 2 1 2 2 2 2 2 3 3 3 3 3 3 3 3 4 4 4 4 4 4 4 4 4
12 11 10 9 9 9 9 9 8 7 7 7 6 5 5 4 4 3 3 2 2 2 2 2 2 2 3 2 3 3 3 3 3 3 4 4 4 4 4 5 5 5 5
13 12 11 11 10 9 10 10 9 8 8 7 7 6 5 5 4 4 3 3 2 2 3 3 3 3 3 3 4 4 4 4 4 4 4 4 4 4 5 5 5 5 5
13 12 12 12 12 11 11 11 10 9 9 8 7 6 6 5 5 5 4 3 3 3 3 3 3 3 3 3 4 4 4 5 4 4 4 4 4 4 4 5 5 5 6
14 14 13 13 12 12 11 12 11 10 9 9 8 7 6 6 6 5 5 4 3 3 3 3 3 3 4 4 4 4 3 3 3 3 3 4 4 5 5 5 5 6 6
16 15 14 14 14 13 13 13 12 12 10 10 9 8 7 6 5 6 5 5 4 4 4 4 4 4 4 3 4 3 3 3 3 3 3 4 5 5 6 6 6 6 7
17 17 16 15 14 14 14 14 14 14 12 11 10 10 9 8 7 6 6 5 5 4 4 4 4 4 4 3 4 4 3 4 4 4 4 5 5 6 6 6 7 7 7
18 18 17 16 15 15 15 15 15 15 14 13 12 11 11 10 9 8 7 7 6 5 4 4 5 5 5 5 5 5 5 5 5 5 5 6 6 7 7 7 8 8 9
19 18 17 17 16 15 15 15 16 15 15 15 14 13 13 12 11 10 9 9 8 7 6 6 6 6 6 6 6 6 6 6 6 6 6 7 8 8 8 8 9 10 11
21 20 18 17 16 15 16 16 16 17 16 16 16 15 14 14 13 12 11 11 10 9 9 8 8 7 7 6 6 6 7 7 7 8 8 9 9 9 9 10 11 12 12
20 20 19 18 17 16 17 17 18 17 17 17 17 16 15 15 14 14 13 13 12 11 11 10 10 9 9 8 8 8 9 9 9 9 10 10 10 10 11 12 12 13 14
21 21 20 19 18 18 19 19 19 19 18 18 18 17 17 16 16 15 15 15 14 13 13 12 12 11 11 11 11 10 11 11 11 11 12 12 12 12 13 14 14 15 15
20 20 20 20 19 19 20 20 21 20 19 19 19 19 18 17 17 16 16 16 16 15 14 14 14 13 13 13 13 13 13 13 13 13 13 13 14 15 15 16 16 17 18
19 20 19 19 19 20 21 21 22 21 21 21 20 20 20 19 18 18 18 18 18 17 16 16 16 16 15 15 15 15 15 14 14 14 15 16 16 17 18 18 19 20 21
18 19 19 19 19 20 21 21 22 23 23 22 22 22 22 21 20 20 20 19 19 18 18 18 18 18 17 17 17 17 17 17 17 17 18 18 19 19 20 21 22 23 24
19 19 19 19 19 20 21 22 23 23 23 22 23 23 23 22 22 21 21 20 20 20 21 20 20 20 20 20 19 18 18 19 20 20 21 21 21 22 23 23 24 25 26
18 19 19 19 19 19 20 21 22 23 23 23 23 23 24 24 23 23 22 22 22 22 22 22 22 22 22 21 21 21 21 22 22 23 23 24 24 25 26 27 28 28 29
18 19 20 20 20 20 20 21 22 23 23 24 24 24 24 25 25 25 24 24 24 23 23 24 24 24 24 24 24 24 25 25 25 25 26 26 27 28 29 30 30 31 32
18 19 20 20 20 20 21 22 22 24 24 24 24 24 24 25 26 26 25 26 25 25 25 26 26 26 26 27 27 28 28 27 27 28 28 29 30 30 31 32 33 34 35
18 18 19 20 20 21 21 22 22 23 24 24 25 24 24 25 26 27 27 27 27 28 28 28 28 29 28 29 29 29 29 29 29 30 31 32 33 34 35 35 36 36 37
18 19 19 20 21 21 21 22 23 24 23 24 24 24 24 24 24 26 27 28 28 29 29 29 29 30 30 30 30 30 31 31 32 33 34 34 36 36 37 38 38 39 39
19 19 20 21 21 21 21 22 22 23 24 24 24 23 25 25 26 27 28 28 28 30 31 31 31 32 32 33 33 33 34 35 35 36 37 37 38 39 40 41 41 41 42
21 21 21 21 21 20 21 22 23 23 23 24 24 25 25 26 27 29 29 29 30 32 33 33 34 34 34 35 35 35 35 37 37 39 39 40 41 41 42 43 44 44 45
20 21 22 22 21 21 21 22 22 23 24 25 25 26 27 28 29 29 29 30 31 33 34 35 35 35 35 36 37 37 37 38 40 41 41 42 43 44 44 45 45 46 47

GEFSMA_500_meanwind_174.txt.gz
Wind_Speed
6 5 5 5 5 5 4 4 3 3 3 3 3 2 1 1 1 1 1 2 2 2 2 2 2 2 2 3 3 2 2 2 2 3 2 2 2 2 2 2 1 1 1
7 7 6 6 6 6 5 5 4 4 3 3 3 3 2 2 2 1 1 1 1 2 2 3 3 2 2 3 2 2 2 2 3 2 2 2 2 3 2 2 2 1 2
8 8 8 7 6 6 6 6 6 5 5 4 4 4 3 3 3 2 1 1 1 1 2 2 3 3 3 3 3 3 2 2 3 2 2 2 2 2 2 2 2 2 2
9 9 9 8 7 7 7 7 7 6 5 5 4 4 4 3 3 2 2 1 1 1 2 2 3 3 3 3 3 3 2 2 2 2 2 3 2 2 2 2 2 2 2
10 10 10 10 9 8 7 8 8 7 7 6 5 5 4 4 3 3 2 2 2 2 2 3 3 3 3 4 4 3 3 2 2 2 2 2 2 2 2 2 2 2 2
11 11 11 11 11 9 9 8 8 8 8 7 6 5 5 4 4 3 3 3 3 3 3 3 3 3 3 4 4 4 3 2 2 2 1 1 1 1 2 2 3 3 3
12 12 12 11 11 10 10 9 9 9 9 8 7 6 6 5 4 4 4 4 4 4 3 3 3 3 4 5 4 4 3 2 2 2 1 2 2 2 2 3 3 4 4
13 13 13 12 12 11 11 10 10 10 9 9 9 8 7 6 5 4 4 5 5 4 4 3 4 4 4 4 4 3 3 3 2 2 2 2 3 3 3 3 4 4 4
15 14 14 14 14 13 13 12 11 12 11 10 10 10 9 8 7 5 5 5 5 4 4 4 3 3 4 4 4 4 4 3 3 3 3 3 4 4 4 4 4 5 5
15 15 15 15 15 14 13 13 13 13 13 12 12 12 11 10 9 8 7 7 6 6 5 5 4 4 4 4 4 4 4 5 4 4 4 5 5 5 6 6 6 6 7
16 16 16 16 16 15 15 15 15 15 14 14 13 13 12 11 10 10 9 9 8 8 7 6 6 6 5 6 6 6 6 6 6 6 6 6 7 7 7 7 8 8 8
16 16 16 17 17 16 16 16 16 16 15 15 15 14 13 13 12 12 11 11 11 10 9 8 8 8 8 7 7 7 7 8 8 8 8 8 8 9 9 9 9 9 9
16 16 17 17 17 17 17 17 17 16 16 16 16 15 15 14 14 13 13 13 13 12 11 11 11 10 10 10 9 8 8 9 10 10 10 10 10 11 11 11 10 10 11
17 16 16 16 17 17 17 17 17 17 17 17 17 17 16 16 15 15 15 15 14 14 13 14 13 13 12 12 11 11 11 11 12 12 12 12 12 12 12 12 12 13 13
16 17 16 17 17 18 17 17 18 18 18 18 18 18 18 17 17 16 16 16 16 15 15 15 15 15 14 14 14 13 13 13 13 13 14 14 14 14 14 14 14 15 16
15 16 18 18 19 19 19 20 20 20 20 20 20 20 20 20 19 18 18 18 17 17 17 17 17 17 16 15 15 15 16 15 16 15 15 15 15 15 16 16 17 17 18
16 16 17 18 19 20 19 20 21 21 20 20 21 21 21 21 21 20 20 20 20 18 18 19 18 18 18 18 17 18 18 18 18 18 18 17 17 18 19 19 19 20 20
16 16 16 17 18 19 19 19 19 19 19 20 21 22 22 23 22 21 21 20 20 20 20 20 21 20 20 21 20 20 20 20 20 20 20 20 20 21 21 21 22 22 22
15 15 15 17 18 19 20 20 20 20 19 19 21 21 21 22 22 22 22 21 21 21 22 23 23 23 22 23 22 22 22 22 22 22 22 23 24 24 24 24 24 25 26
15 15 16 16 17 18 19 19 20 20 19 19 19 20 20 20 21 22 22 22 23 23 23 24 24 25 24 24 24 24 24 24 24 24 25 25 26 26 26 26 27 29 29
15 16 15 15 16 16 17 19 20 20 20 20 21 20 20 21 22 22 23 23 24 24 24 24 24 25 26 26 25 26 26 26 26 27 28 28 28 28 28 29 30 32 33
15 16 16 16 16 17 17 19 20 20 21 22 22 22 22 23 23 23 24 24 25 25 25 26 26 26 26 28 28 28 29 29 29 30 30 30 30 30 31 32 33 34 35
17 17 17 17 17 17 18 19 20 20 21 22 22 23 23 23 24 24 24 25 25 26 26 26 26 26 28 30 30 31 31 31 31 32 33 33 34 34 34 35 36 37 38
18 18 18 19 19 19 19 20 20 20 21 22 22 23 24 24 24 25 26 26 26 26 27 28 29 29 30 31 31 32 33 33 34 35 36 35 35 36 37 37 38 39 40
19 19 19 19 19 20 20 21 21 22 22 22 23 23 24 25 25 26 26 27 27 28 29 30 30 32 33 34 33 33 34 36 36 37 38 38 38 39 40 40 41 42 42
20 20 20 20 20 20 21 22 22 22 23 23 23 23 24 25 26 27 29 29 30 31 31 32 33 34 34 35 35 35 36 37 38 39 40 41 41 42 43 44 45 45 45

GEFSMA_500_meanwind_180.txt.gz
Wind_Speed
2 2 2 2 2 1 1 1 1 1 0 0 1 1 1 1 1 2 2 2 2 2 2 2 2 2 2 2 1 1 1 0 0 1 1 1 1 2 2 2 2 2 1
2 2 3 3 3 3 2 2 2 2 1 1 0 0 0 0 1 1 1 1 1 1 2 2 2 1 1 1 1 1 0 1 1 1 1 2 2 2 2 3 3 2 2
3 3 3 3 4 4 3 3 3 3 2 2 1 1 0 1 1 1 1 0 1 1 1 1 1 1 1 1 1 1 1 1 1 1 1 2 2 2 2 3 3 2 2
3 4 4 4 4 4 4 4 4 3 3 3 2 1 1 2 1 1 1 1 1 0 0 1 1 1 2 2 2 2 1 1 2 1 2 2 2 1 2 2 3 2 2
4 4 5 5 5 5 6 6 5 5 4 4 3 2 2 2 2 2 2 2 2 1 1 1 1 1 2 2 2 2 2 2 2 2 2 2 2 2 2 2 3 3 3
5 5 6 6 6 6 6 7 6 6 5 4 4 4 3 3 3 3 2 2 3 3 2 2 2 2 2 2 2 2 2 2 1 1 1 2 2 2 2 2 3 3 4
7 6 6 7 7 7 7 7 7 6 6 6 5 5 5 5 5 4 3 3 3 3 3 3 3 4 4 4 3 3 2 2 2 2 2 2 2 3 3 4 4 4 4
8 8 8 8 8 8 8 8 7 8 8 7 7 7 6 6 6 5 5 5 5 5 5 5 5 4 4 4 4 4 3 3 3 4 4 3 3 3 4 4 4 4 4
9 9 9 9 10 9 8 8 9 9 9 9 8 8 8 8 7 7 7 6 6 6 6 6 6 5 5 5 5 5 5 4 4 5 5 5 5 5 5 5 5 5 6
10 10 10 10 10 11 11 10 10 11 11 10 10 10 10 10 9 9 9 9 8 8 8 7 8 7 6 6 6 6 6 6 6 6 6 6 6 6 6 6 7 7 7
11 12 12 11 11 12 12 12 12 12 12 11 11 12 12 11 11 12 12 11 11 10 10 9 9 9 9 9 8 8 7 7 8 8 8 8 8 8 8 8 8 8 8
12 12 12 12 12 13 13 13 13 13 13 13 12 13 13 12 13 13 13 14 13 13 12 12 11 11 11 11 10 10 9 9 9 10 10 10 10 10 10 10 11 11 11
12 13 13 14 13 13 14 14 15 15 14 14 14 14 14 14 15 14 14 14 14 14 14 14 13 13 13 12 12 12 12 11 12 12 12 12 12 12 12 12 13 13 13
12 12 13 13 13 13 14 15 16 16 16 16 16 16 16 16 16 16 16 16 16 16 15 15 15 15 15 15 14 14 14 14 14 14 14 14 14 13 14 14 15 15 15
11 11 12 12 13 14 15 15 16 17 18 18 18 18 18 18 18 17 17 18 18 17 17 17 17 17 17 17 16 17 16 16 16 16 16 16 16 16 16 16 16 16 16
12 12 12 13 14 14 15 15 16 17 18 19 20 20 20 20 19 19 19 20 20 19 19 19 19 19 19 19 19 19 19 19 19 18 18 18 19 18 18 18 18 17 18
13 13 13 14 14 14 14 15 17 17 18 20 20 21 21 22 21 22 21 21 21 21 21 21 21 20 20 21 21 20 20 20 20 20 20 20 20 20 21 21 21 21 21
14 14 13 14 14 15 15 15 16 17 18 19 20 21 21 22 22 22 23 23 22 22 22 22 22 22 22 22 22 21 21 22 21 22 23 23 23 23 23 24 24 24 24
15 14 14 14 15 15 15 16 16 17 18 19 19 20 21 21 21 22 23 22 23 22 22 22 23 24 24 23 23 23 23 23 23 24 24 25 26 26 27 27 27 27 27
15 15 14 15 15 16 16 16 17 18 18 18 19 19 20 21 22 22 22 22 22 22 23 23 24 24 24 24 24 25 25 26 26 26 27 28 28 29 29 30 30 30 30
14 15 15 16 15 16 16 16 17 17 17 17 18 19 19 20 21 22 22 22 23 23 23 24 25 26 26 26 25 26 27 28 28 29 29 30 31 31 31 31 32 32 33
14 15 15 16 16 17 17 17 17 17 17 18 19 19 20 21 22 23 23 23 23 24 24 25 26 26 27 28 28 28 29 29 30 31 31 31 32 32 33 34 35 35 35
16 15 15 16 17 17 17 18 17 18 18 19 19 20 21 22 22 22 23 23 24 25 25 26 27 28 28 29 29 29 30 31 31 32 32 32 33 33 35 36 37 37 38
16 16 17 18 18 18 18 18 19 20 20 21 21 21 22 22 22 22 23 24 25 26 27 28 29 29 30 30 31 31 31 32 32 33 33 33 34 36 37 38 39 40 41
17 17 18 18 19 19 19 20 20 21 22 21 22 22 22 22 23 23 23 24 25 26 28 29 30 30 31 32 32 32 32 33 33 34 35 36 36 38 38 39 40 41 42
18 18 18 19 19 20 20 21 22 22 22 22 23 24 24 24 24 25 25 25 27 28 29 30 31 31 32 33 34 35 35 35 36 36 37 38 38 39 39 40 41 42 43

GEFSMA_500_meanwind_186.txt.gz
Wind_Speed
2 2 2 1 1 1 1 1 1 1 1 1 1 1 2 2 2 2 2 1 2 2 2 2 2 2 2 2 2 1 1 1 1 1 2 2 2 2 2 2 2 2 2
2 1 1 1 1 1 1 1 1 1 1 0 0 0 1 1 2 2 2 1 0 1 1 1 1 1 2 2 2 1 2 2 2 2 2 2 3 3 3 3 3 3 3
2 2 2 2 2 2 1 1 1 2 1 1 1 1 1 1 1 2 1 1 0 0 0 0 1 1 2 2 2 2 2 3 3 3 3 3 3 3 3 3 3 3 2
2 3 3 3 4 3 3 2 2 3 3 3 2 2 2 1 1 2 1 1 1 1 1 1 1 2 2 2 3 3 3 3 3 3 3 3 3 3 3 3 3 3 3
3 3 3 4 4 4 4 3 3 3 4 3 3 3 3 3 2 2 2 2 2 2 2 2 2 3 3 3 3 4 3 3 3 3 3 3 3 3 3 3 3 4 4
4 4 4 5 5 5 5 5 5 5 5 5 5 5 4 4 4 4 4 3 3 3 3 4 4 4 4 4 4 4 4 4 4 4 4 4 4 4 5 4 4 5 5
6 6 5 6 7 7 6 6 6 6 6 6 6 6 6 6 6 6 5 5 4 4 5 5 5 6 6 6 5 5 5 5 5 5 5 5 5 6 6 6 6 6 6
7 8 7 7 8 8 8 7 7 7 7 8 8 8 8 7 7 7 7 6 6 6 6 6 6 7 7 7 7 7 6 6 7 7 7 7 6 7 7 7 8 8 8
9 8 8 7 8 9 9 9 9 8 8 9 10 10 9 9 9 9 9 8 8 8 8 8 8 8 8 8 8 8 8 8 8 8 9 9 8 8 8 9 9 9 9
9 9 10 9 9 10 10 10 10 10 10 11 11 11 11 11 10 11 11 11 10 10 10 9 9 9 9 10 10 10 10 10 10 10 10 10 10 10 10 10 10 10 11
10 11 11 11 10 11 12 12 12 12 11 12 13 12 12 12 12 12 12 12 12 13 12 12 12 11 12 12 12 12 12 12 12 11 11 11 12 12 12 12 13 12 12
12 12 12 12 12 12 13 13 13 13 13 13 14 14 14 14 14 14 13 14 14 14 14 14 14 14 14 14 14 14 14 14 13 13 13 13 13 14 14 14 14 14 14
12 13 13 12 13 13 13 13 14 14 15 15 15 15 15 16 16 16 16 16 16 16 16 16 16 16 16 16 16 16 16 15 15 15 15 15 15 15 16 16 16 16 16
13 13 13 13 12 13 13 13 14 14 15 16 16 17 18 18 18 18 18 18 18 18 18 18 19 19 18 18 18 18 18 18 18 18 18 17 17 18 18 18 18 18 19
13 13 13 13 13 13 13 14 14 15 16 17 18 19 20 20 21 21 21 21 21 20 20 20 20 21 21 21 21 21 20 20 20 20 20 20 20 20 21 21 21 21 21
13 12 12 13 14 14 14 14 15 16 16 17 19 19 20 21 22 22 23 23 23 23 22 23 23 23 23 23 23 22 22 22 22 21 22 22 22 22 23 23 23 23 23
14 14 14 15 15 14 14 14 15 15 16 17 17 18 19 20 21 22 23 24 25 24 24 24 25 25 25 25 24 24 24 24 24 24 24 24 24 25 25 25 25 25 25
15 15 15 15 15 16 16 15 15 16 16 17 17 18 19 19 20 21 22 23 24 24 25 25 25 25 25 25 25 26 25 26 26 26 26 26 25 25 26 26 26 27 27
15 15 15 15 15 16 16 17 17 17 17 18 17 18 18 19 19 20 21 22 24 25 25 25 25 25 26 26 27 27 27 27 27 27 27 26 26 27 27 28 29 29 30
15 15 16 16 16 16 17 17 18 18 18 18 18 18 18 19 19 20 20 22 23 24 24 25 24 25 26 27 27 27 28 28 28 28 29 29 29 29 30 30 31 32 32
16 16 16 16 17 17 17 18 18 19 19 19 20 19 19 20 21 21 21 22 23 23 24 24 25 25 26 26 27 28 29 29 29 30 31 32 32 32 32 33 34 34 35
16 16 17 17 17 16 16 18 19 20 20 20 20 21 21 21 22 21 22 23 24 24 25 25 26 27 27 28 29 29 30 31 32 33 33 34 35 35 35 35 36 37 37
16 16 17 17 18 18 18 19 19 20 21 21 21 22 24 24 23 24 24 25 25 25 26 27 28 28 29 30 30 31 32 32 33 34 35 35 37 38 38 39 39 39 40
17 17 18 18 19 20 20 20 20 20 21 22 22 23 24 24 25 25 25 25 26 26 27 28 29 29 30 31 32 34 34 34 35 36 36 37 38 39 39 40 40 41 42
18 19 19 19 20 20 20 20 20 20 21 21 22 23 23 24 25 25 26 27 27 28 28 29 30 31 31 32 33 34 35 36 37 38 39 39 39 40 41 42 43 43 44
20 20 20 20 20 20 20 21 21 21 21 22 23 24 25 25 26 27 27 28 28 29 30 31 32 32 32 33 34 35 36 37 38 39 40 41 41 42 43 44 44 44 45

GEFSMA_500_meanwind_192.txt.gz
Wind_Speed
2 3 3 2 2 2 3 3 3 2 2 2 1 1 1 1 1 1 1 1 1 1 1 1 1 1 1 1 1 1 1 1 1 1 1 2 1 1 1 1 1 1 2
2 3 3 3 3 2 2 2 2 2 2 1 1 1 1 0 0 0 0 1 1 0 0 1 1 0 0 1 1 1 1 1 1 2 2 3 3 3 3 3 3 2 2
3 3 3 3 3 3 3 2 3 3 2 2 2 2 2 1 1 1 1 1 1 1 1 1 2 2 2 2 1 1 1 2 2 2 3 3 3 4 4 4 3 3 3
3 3 4 4 4 4 4 3 4 4 4 3 3 3 3 2 2 2 2 2 2 2 2 2 3 3 3 3 3 3 2 2 3 3 3 3 3 3 4 4 4 4 3
5 5 5 6 5 5 5 5 5 5 4 4 4 4 3 3 3 3 3 3 3 3 3 3 4 4 4 4 4 4 4 3 3 3 3 3 3 4 4 4 4 5 5
6 6 6 6 6 6 7 6 6 6 6 6 6 5 4 4 4 4 5 5 5 4 4 5 5 5 5 5 5 5 5 5 5 5 5 5 5 5 5 6 6 6 6
6 7 7 7 7 7 7 7 7 7 7 6 6 6 6 6 6 6 6 6 6 6 6 6 6 7 7 7 6 6 6 6 6 6 6 6 7 7 7 7 7 7 8
7 8 8 8 7 7 7 8 8 9 8 7 7 7 7 7 7 8 8 8 8 8 8 8 8 8 8 8 8 8 8 8 8 7 7 8 8 8 9 9 9 9 9
9 9 9 9 9 8 9 9 9 9 9 9 9 9 9 9 9 9 9 9 9 10 10 10 10 10 10 10 10 10 10 10 9 9 9 9 10 10 10 10 10 10 11
10 10 10 10 11 10 10 10 10 11 11 11 11 11 10 10 10 10 11 11 11 11 11 12 12 12 12 12 12 12 12 11 11 11 11 11 11 11 11 11 11 12 12
11 11 12 11 11 11 11 11 12 12 12 12 12 12 12 12 12 12 12 12 12 12 13 13 13 13 13 13 13 13 13 13 13 13 13 13 13 13 13 12 12 13 13
12 12 13 13 13 12 12 12 12 12 12 13 14 14 14 14 14 14 13 14 14 14 14 14 14 15 15 15 14 15 15 15 15 15 15 16 16 15 15 15 15 15 15
12 13 13 13 13 12 12 12 12 12 13 14 15 15 15 16 16 16 16 15 16 17 17 17 17 17 17 17 16 16 16 16 17 17 17 18 18 18 17 17 17 17 17
12 13 13 13 14 13 13 13 13 14 14 14 15 16 17 17 17 17 17 18 19 19 20 20 20 20 20 20 19 18 18 18 19 19 19 19 20 20 20 19 19 20 20
13 12 13 14 14 14 14 13 14 14 14 14 15 16 17 18 18 18 19 20 21 22 22 22 23 23 22 22 22 22 21 21 21 21 21 21 21 21 22 21 22 22 22
14 14 13 14 14 15 15 15 15 15 15 15 16 16 17 17 18 19 20 20 21 22 22 23 23 23 24 24 24 24 24 24 23 23 23 23 23 23 23 23 24 24 24
15 15 15 15 15 15 16 16 16 16 17 17 17 17 17 18 19 19 19 20 20 20 21 22 23 23 23 24 24 25 25 25 24 24 25 25 25 25 26 25 25 26 26
16 16 17 17 16 16 16 17 17 18 18 18 18 18 19 19 20 20 19 20 20 20 20 21 22 22 23 25 25 26 26 26 26 26 26 27 27 27 27 27 27 27 27
17 17 18 18 18 17 18 18 18 18 18 19 19 19 20 21 21 21 21 21 21 21 22 22 23 24 25 25 25 25 26 27 27 27 28 28 28 29 29 28 28 29 29
18 18 19 18 18 18 18 18 18 18 19 20 21 21 21 21 21 21 21 21 22 22 23 23 24 25 25 25 26 25 26 27 28 29 29 29 29 30 30 31 31 31 32
18 19 19 19 19 18 18 18 19 19 20 21 21 22 22 22 22 22 22 22 23 23 24 25 26 26 26 26 27 28 28 29 29 29 30 30 31 32 32 32 33 34 34
19 19 19 19 19 20 20 20 21 21 21 21 21 21 21 22 23 23 23 24 24 24 25 26 27 28 28 28 28 29 30 30 31 31 33 33 34 34 35 35 35 36 36
19 19 20 20 20 21 20 21 21 21 22 22 21 22 22 23 24 24 25 25 26 26 27 28 28 29 29 29 30 31 32 33 33 34 35 35 35 36 37 37 37 37 38
19 19 20 21 21 21 20 21 21 21 21 22 23 23 24 24 24 25 26 26 27 28 29 30 30 30 31 31 32 33 33 34 34 35 36 37 37 37 38 38 38 39 40
20 21 21 21 20 20 20 21 22 22 23 23 23 24 25 26 26 27 28 28 29 29 30 31 31 32 33 33 34 35 35 36 36 36 37 38 38 38 38 39 39 40 41
20 21 21 20 21 22 22 23 23 24 24 25 25 25 26 27 29 30 30 30 30 31 31 32 33 33 35 35 36 36 36 36 36 36 37 38 39 40 39 39 40 41 42

GEFSMA_500_meanwind_198.txt.gz
Wind_Speed
3 3 3 3 3 3 2 1 1 1 1 2 2 2 2 2 2 2 3 3 2 2 3 3 2 2 3 3 2 2 2 2 1 1 1 1 1 1 1 1 1 2 2
3 3 3 3 3 3 3 2 1 1 1 2 2 2 2 2 2 2 2 2 2 2 2 2 2 2 2 2 2 2 2 2 2 2 2 2 3 2 2 2 2 3 2
3 3 4 3 3 3 3 3 2 2 2 2 2 3 3 2 2 2 2 2 2 2 2 2 2 2 2 3 3 3 3 3 3 3 3 3 3 3 3 3 4 3 3
4 4 4 5 5 5 5 4 4 3 3 3 3 4 3 3 3 3 2 2 3 3 3 3 3 3 3 3 4 4 3 4 4 4 4 3 3 3 4 4 4 4 4
5 5 6 6 6 6 6 5 6 5 4 4 5 5 4 4 4 4 3 3 3 3 4 3 4 4 4 4 4 4 4 5 4 4 5 5 4 4 4 4 4 4 4
6 6 6 6 6 6 6 6 7 6 6 6 6 6 5 4 5 5 5 4 4 5 5 5 5 5 5 5 5 5 6 6 6 5 5 6 5 5 5 5 5 6 6
7 7 7 7 7 7 7 7 8 8 7 7 7 6 6 6 6 6 6 6 6 6 6 6 6 6 6 6 6 7 7 7 7 7 7 7 7 7 7 7 7 8 8
7 7 7 8 8 7 8 9 8 8 8 9 9 8 7 7 7 7 8 8 8 8 7 7 7 7 8 8 8 8 8 8 8 8 8 9 9 9 9 9 9 10 10
7 7 8 8 8 7 8 9 9 9 9 9 9 9 8 8 9 8 9 9 9 9 9 9 9 9 9 9 9 10 10 10 10 10 10 11 11 11 11 11 11 12 12
8 8 8 8 8 8 9 9 9 9 9 9 9 10 10 10 10 10 10 10 10 11 11 11 10 11 10 10 11 11 11 12 12 12 12 13 13 13 13 13 13 13 14
8 8 8 8 9 9 9 10 10 10 9 10 10 11 12 12 12 12 12 12 12 12 12 12 12 12 13 12 12 13 13 14 14 14 14 14 14 14 14 14 15 15 15
9 9 9 9 10 10 10 11 11 11 11 10 11 11 12 13 13 13 14 14 14 14 14 14 15 15 15 15 15 15 15 16 16 16 16 16 16 16 16 16 16 17 17
9 9 9 9 10 10 11 12 12 12 12 12 12 12 13 13 14 15 15 15 15 16 16 17 17 17 17 17 17 18 18 18 18 18 18 18 18 18 18 18 18 18 18
9 9 9 10 11 11 12 12 12 12 13 13 13 14 14 15 15 16 16 16 16 16 17 18 18 19 19 19 19 19 19 19 19 19 19 19 20 20 21 21 20 20 20
10 10 10 10 10 12 12 13 13 13 13 14 14 15 15 15 16 16 16 17 17 16 17 18 19 19 19 20 20 20 20 20 21 20 21 21 22 22 21 21 22 22 22
11 11 11 11 12 12 13 13 14 14 14 14 15 15 16 17 17 17 18 18 18 18 18 19 19 19 19 19 20 20 20 20 21 22 22 23 23 23 23 24 24 25 25
13 13 13 13 13 14 14 15 15 15 16 16 17 17 18 18 18 18 19 19 19 19 19 19 20 20 20 20 20 21 21 21 22 22 22 23 23 24 25 25 25 26 26
14 14 15 15 15 15 16 16 17 16 17 18 18 19 19 19 19 19 20 20 20 20 20 21 21 21 21 22 22 22 22 23 22 23 23 24 25 25 26 27 27 28 28
15 16 16 16 16 16 17 18 18 18 19 19 19 19 19 20 20 20 20 21 21 22 22 21 21 22 23 23 23 23 24 24 24 23 24 26 27 28 28 28 29 30 31
16 16 17 17 17 17 18 18 19 19 20 20 19 20 20 20 21 21 22 22 22 23 23 23 23 24 25 25 25 25 25 26 26 26 26 26 27 28 30 30 30 31 33
17 17 17 18 18 19 19 19 19 19 19 20 20 21 22 22 22 22 23 23 24 24 25 25 25 26 26 26 26 27 28 28 28 29 28 29 29 30 31 32 33 33 34
18 18 18 19 19 19 19 19 20 20 20 21 22 22 23 23 24 24 25 25 25 25 26 26 27 27 28 29 29 29 30 30 30 30 30 31 32 32 33 33 34 34 35
18 18 19 20 19 19 19 19 19 20 21 22 23 24 24 25 25 25 26 26 26 26 26 27 28 29 30 30 30 31 31 32 32 32 33 33 34 34 35 35 35 35 36
19 19 19 20 19 19 20 20 20 21 22 23 24 25 25 25 25 25 26 27 27 28 28 29 30 31 32 31 32 32 32 33 33 34 34 34 35 35 36 36 36 36 36
20 20 20 20 20 21 21 22 22 23 23 24 25 25 25 26 26 27 28 29 30 30 30 31 32 32 33 32 32 32 33 33 34 34 35 35 36 37 37 37 37 37 38
20 20 20 21 21 22 22 23 24 24 24 25 24 25 26 27 28 29 30 30 31 31 32 32 32 33 33 34 35 35 35 35 35 35 36 36 36 37 37 38 39 39 40

GEFSMA_500_meanwind_204.txt.gz
Wind_Speed
5 5 4 4 4 3 3 3 3 3 4 4 3 3 2 2 3 3 2 2 2 2 3 2 2 2 2 2 2 1 1 0 0 1 2 2 2 2 3 3 3 3 4
4 4 3 4 3 2 3 2 2 2 2 2 2 2 1 2 2 2 2 2 1 1 1 1 1 1 1 1 1 1 1 1 1 2 2 3 3 3 3 4 4 4 4
3 3 3 3 2 2 1 2 1 1 1 1 1 1 1 1 1 1 1 1 1 1 1 1 1 1 1 1 1 1 2 2 2 3 3 4 4 4 4 5 5 5 5
3 3 3 3 2 2 1 1 1 1 1 2 1 1 1 1 1 2 2 2 2 1 1 2 2 2 3 3 3 3 3 3 3 4 4 5 5 5 5 6 6 6 6
3 3 3 3 2 1 2 1 1 2 2 2 2 2 1 1 2 2 3 3 3 3 3 3 4 3 4 4 4 4 4 4 4 5 5 5 6 6 6 6 7 7 7
3 3 3 3 2 1 2 2 2 2 2 2 2 2 2 2 3 4 4 4 4 4 5 5 5 5 5 5 5 5 5 5 5 6 6 6 6 6 7 7 8 8 9
3 2 3 2 2 2 2 2 2 2 2 2 3 3 4 4 4 5 5 6 6 7 7 7 8 7 7 7 7 7 7 7 7 7 7 7 7 8 8 8 8 9 10
4 4 4 3 2 2 3 3 2 2 3 4 4 4 5 5 5 5 6 7 8 8 8 8 9 9 9 9 9 9 9 9 9 8 8 9 9 9 9 10 10 11 11
5 5 5 4 3 4 4 4 4 4 4 4 5 5 5 6 7 7 8 8 9 9 9 10 10 10 11 11 11 11 11 11 11 11 10 11 11 12 12 12 12 13 13
5 4 4 5 4 4 4 4 5 4 4 5 5 6 7 7 8 8 9 10 10 11 11 11 12 12 12 12 12 12 12 13 13 13 13 13 13 13 14 14 14 15 15
4 4 5 5 5 4 5 5 5 5 5 6 7 7 8 8 9 10 10 11 11 12 12 13 13 14 14 14 14 14 14 14 14 15 15 15 15 15 16 16 16 16 16
5 4 4 5 5 5 5 6 6 7 7 8 8 9 9 10 10 10 11 12 13 13 13 14 14 14 15 16 16 17 17 16 16 16 16 17 17 17 17 18 18 18 18
5 5 5 5 5 5 6 6 7 8 8 9 9 10 10 11 11 11 12 13 14 14 14 14 14 15 16 17 17 18 18 18 18 18 18 18 18 18 19 19 19 20 20
5 5 6 7 7 7 8 8 8 9 9 10 10 10 11 11 12 12 13 13 14 15 15 15 15 15 16 17 17 17 18 18 18 19 19 19 20 19 19 20 21 22 22
6 6 6 7 7 8 9 10 11 11 11 11 11 11 12 12 13 13 14 14 15 15 16 16 16 17 17 17 18 19 18 19 20 20 21 21 21 21 22 22 23 23 24
7 7 7 6 7 8 10 11 11 11 11 12 13 13 13 13 13 13 14 15 16 15 16 16 17 18 18 18 18 20 19 19 20 21 21 22 22 23 24 25 24 25 25
9 8 9 8 8 9 10 11 11 11 12 13 13 14 14 14 14 14 15 15 16 16 17 17 18 19 20 19 19 20 21 20 21 22 23 24 24 25 26 26 27 27 27
10 10 10 10 11 11 11 11 12 13 14 14 15 14 14 14 14 14 15 16 16 16 17 18 19 20 20 21 21 21 22 24 25 25 25 26 26 27 28 28 29 29 29
11 11 11 11 11 11 12 13 13 14 15 15 16 16 15 15 14 15 16 17 17 18 18 18 20 21 22 22 23 23 24 25 25 26 28 28 28 29 30 30 31 31 31
12 12 12 12 12 12 12 13 13 14 14 15 15 16 16 16 16 17 18 18 19 20 20 20 21 22 22 23 24 25 25 26 27 28 29 30 31 31 31 31 32 33 34
12 12 12 12 12 13 13 14 14 15 15 15 16 16 17 17 18 19 20 20 21 21 22 22 22 23 23 24 25 26 26 27 28 29 30 31 32 33 33 33 33 34 35
12 12 12 12 13 13 14 15 15 16 16 16 17 18 18 19 20 20 21 22 23 23 23 23 24 24 25 26 27 28 28 29 30 31 31 32 33 33 34 34 34 35 36
14 13 14 14 14 15 16 16 17 17 18 18 19 20 20 20 21 22 22 23 23 23 24 24 25 26 27 27 28 29 29 30 31 32 33 33 34 35 36 35 36 37 37
14 14 16 16 16 17 18 19 18 19 19 20 20 21 21 21 22 22 23 24 24 24 25 26 26 27 27 28 29 30 31 32 32 33 34 34 35 37 38 38 38 38 39
15 16 17 18 18 19 20 19 19 20 20 20 21 21 22 23 23 24 25 25 25 26 26 27 28 28 29 30 31 31 32 32 33 35 35 36 36 37 38 38 38 39 40
17 17 18 19 19 20 20 20 20 21 21 21 22 22 23 24 24 25 26 26 27 27 28 29 30 30 31 31 32 33 34 35 36 36 37 38 38 39 40 40 40 41 41

GEFSMA_500_meanwind_210.txt.gz
Wind_Speed
4 4 4 4 4 4 4 4 3 3 3 3 3 3 3 3 2 2 2 2 2 1 1 1 1 1 2 2 2 1 1 1 2 2 2 2 2 2 2 3 3 4 4
3 3 2 2 2 3 3 3 2 2 2 3 3 2 2 2 2 2 2 1 1 1 1 1 1 1 2 1 2 2 2 2 2 3 3 4 4 4 4 4 5 5 6
3 2 1 1 1 2 2 2 1 1 1 1 1 1 1 1 1 1 1 1 1 2 2 2 3 3 3 3 3 3 3 3 3 4 4 5 5 5 5 6 6 6 7
2 2 1 1 1 1 1 1 1 1 0 1 1 2 2 2 2 3 3 3 3 3 3 4 4 5 5 4 4 5 5 5 5 5 5 6 6 6 7 7 7 7 7
2 2 1 1 0 1 1 1 1 1 1 2 2 2 2 2 3 4 4 5 5 5 5 5 5 5 6 6 6 6 6 6 6 6 6 6 7 7 7 8 8 8 8
2 2 1 1 1 2 3 3 3 2 2 3 3 3 3 3 4 5 5 5 6 6 7 7 7 7 7 7 8 8 8 8 8 8 8 8 9 9 9 9 9 9 10
3 2 1 1 2 3 3 4 4 4 4 4 4 4 4 5 5 5 5 5 6 7 8 8 8 8 9 9 9 9 9 10 9 9 10 10 10 10 11 11 11 10 11
4 4 3 3 3 3 4 4 5 5 5 5 5 5 5 6 6 6 7 7 8 9 9 9 10 10 10 10 11 11 11 11 11 11 11 12 12 12 12 12 12 12 12
5 5 5 4 4 3 4 5 5 6 6 7 6 6 7 7 7 7 8 9 10 10 10 10 11 11 12 12 13 13 13 13 13 13 13 14 14 15 14 14 14 14 14
6 6 6 5 5 5 6 6 6 7 7 7 8 8 9 9 10 10 10 10 11 11 12 12 12 12 13 13 14 15 15 15 15 15 15 15 16 16 16 17 17 17 17
6 6 7 6 6 6 7 7 7 7 8 9 9 10 10 10 11 11 11 12 12 12 12 13 14 14 15 15 15 16 16 16 16 17 17 17 17 17 18 19 19 19 19
8 7 8 8 7 7 8 8 8 8 9 10 10 10 10 11 11 11 12 12 13 13 13 13 14 14 15 16 16 16 17 17 17 18 18 18 18 18 18 19 20 20 21
9 8 8 9 9 9 9 10 9 9 10 10 11 11 11 12 12 12 12 13 13 14 14 15 15 15 16 16 17 17 18 18 19 19 20 19 20 20 21 21 21 22 22
9 8 9 9 10 10 10 10 10 11 11 11 12 12 13 14 14 14 14 15 15 16 15 15 16 16 16 17 18 19 19 20 21 21 21 21 22 22 23 24 24 23 23
9 9 9 9 10 11 12 11 11 11 12 13 13 14 15 15 15 15 16 16 16 16 17 18 18 18 18 18 20 20 20 21 22 22 22 22 23 24 25 26 26 26 26
10 9 9 9 10 11 11 12 13 13 14 14 15 15 15 15 15 16 16 16 17 17 18 19 19 19 19 20 21 21 22 22 22 22 23 24 24 25 26 26 27 27 28
11 10 10 11 11 11 12 12 13 14 15 15 15 16 16 17 17 17 17 17 18 19 19 19 20 20 20 21 22 22 22 23 23 24 25 26 26 27 28 29 29 30 30
11 11 11 12 12 12 12 12 12 13 14 14 15 16 17 17 18 18 18 19 19 20 20 20 21 21 21 23 23 24 24 24 25 26 27 28 28 29 30 30 31 32 32
12 12 12 13 12 12 11 12 12 13 14 14 15 16 17 17 18 18 18 19 20 21 22 21 22 23 23 24 25 25 25 26 26 27 28 29 30 31 32 32 33 33 34
13 13 13 13 13 13 12 12 14 14 14 15 15 16 17 18 19 19 20 21 22 23 23 23 24 25 25 26 27 27 27 28 28 28 29 30 31 31 32 33 34 35 35
14 15 14 13 13 13 13 13 15 15 16 16 16 17 18 19 19 21 21 22 23 24 25 25 26 27 26 27 28 28 29 30 30 31 32 32 33 33 34 35 36 36 37
15 15 14 14 14 15 15 16 17 17 18 18 19 19 20 21 22 22 23 23 24 25 25 25 26 27 27 28 28 30 31 31 32 33 34 34 35 36 37 37 37 37 38
16 15 16 16 16 17 17 18 18 19 19 20 20 21 22 22 23 24 24 25 25 25 25 26 27 27 27 28 29 30 31 32 33 35 36 37 38 38 39 39 39 39 40
17 17 17 17 17 17 18 19 19 19 20 21 21 22 23 23 24 24 25 26 26 27 27 28 29 29 30 31 31 32 33 34 35 36 37 38 39 40 41 41 41 42 42
18 18 18 18 18 19 19 19 20 21 22 22 23 23 24 24 25 25 26 26 27 27 28 29 30 31 32 33 34 34 35 36 37 38 39 39 40 41 42 42 43 44 45
19 19 18 18 19 20 20 21 22 22 23 23 24 24 25 26 26 27 27 28 29 30 30 31 32 33 34 35 36 36 37 38 38 39 39 40 41 42 44 44 45 44 44

GEFSMA_500_meanwind_216.txt.gz
Wind_Speed
6 6 5 5 5 5 5 4 4 4 4 3 3 3 3 2 2 2 2 2 1 2 2 1 0 0 0 0 1 1 2 2 3 3 3 4 4 4 5 5 5 5 5
5 4 4 3 3 3 3 3 3 3 2 2 2 2 2 2 1 1 1 0 0 1 1 1 1 1 1 2 2 2 3 3 4 4 5 5 5 5 5 6 7 7 7
3 3 2 2 2 2 2 2 1 2 1 1 1 1 0 0 1 1 1 1 2 2 2 2 2 2 2 3 3 4 4 4 4 5 6 6 6 7 7 7 7 8 8
2 2 1 1 1 1 1 1 1 1 1 1 2 2 2 2 2 2 2 3 3 3 3 4 4 4 5 5 5 5 5 5 6 6 6 7 7 8 8 8 8 8 9
2 2 2 1 1 1 1 2 2 2 2 2 2 3 3 3 3 3 3 4 4 5 5 5 5 6 6 7 6 7 7 7 7 8 8 8 8 8 9 9 9 9 9
3 2 3 2 2 3 3 2 2 3 3 3 4 4 4 4 4 4 5 6 6 6 6 7 7 7 7 8 8 8 9 8 8 8 9 9 9 8 9 9 10 10 10
4 3 4 3 4 4 4 3 3 4 4 5 5 5 5 5 5 5 6 7 7 7 8 8 9 9 9 9 9 10 10 9 10 10 10 9 10 10 10 10 11 11 11
4 4 4 4 4 4 4 4 5 5 6 6 6 6 6 6 7 7 8 8 9 9 10 10 11 10 11 10 11 11 12 12 11 12 12 11 11 12 11 12 13 13 13
6 6 5 5 5 4 5 5 5 5 6 7 7 7 7 8 9 9 10 10 10 11 11 12 11 11 11 12 12 13 13 14 14 14 14 14 14 13 13 14 14 15 15
7 6 6 6 6 6 6 6 6 6 7 7 7 8 9 9 10 11 11 11 11 12 12 12 12 12 12 12 13 13 14 14 14 15 15 15 16 16 15 15 16 16 17
8 7 7 7 7 7 7 6 6 7 8 8 9 9 10 10 11 12 12 12 13 13 13 13 13 13 13 13 13 14 14 15 15 15 16 16 17 17 18 18 18 18 18
8 9 9 9 9 9 8 7 7 7 8 8 9 9 10 11 12 12 13 13 13 14 13 14 14 14 14 15 15 15 16 16 16 17 17 17 18 19 19 19 20 20 20
10 10 10 9 9 8 9 8 8 8 9 9 9 10 11 12 13 13 14 14 14 15 15 15 15 15 16 16 16 16 17 18 18 18 19 19 19 20 20 20 21 21 22
11 11 10 9 9 10 10 9 10 10 10 10 10 11 12 13 13 14 14 14 15 16 16 16 16 16 16 17 17 18 18 19 19 20 21 21 21 21 22 22 22 22 23
11 11 10 10 10 11 10 10 11 11 12 12 12 12 13 14 14 14 15 16 17 17 17 17 17 18 19 19 19 20 20 21 21 21 22 22 22 23 24 24 24 25 25
11 11 10 10 10 10 10 11 11 12 12 13 14 14 15 16 16 16 16 17 18 18 18 18 19 19 20 21 22 22 22 22 22 22 23 23 24 25 26 26 27 27 28
10 10 10 10 10 9 10 11 12 12 12 13 14 14 15 16 17 17 17 18 19 19 20 20 21 22 22 23 24 24 24 24 24 24 25 26 26 27 28 28 28 29 30
11 10 10 9 9 10 11 11 13 13 13 13 14 14 15 16 17 17 18 19 19 20 21 21 21 22 23 24 24 24 25 26 26 27 27 28 29 29 29 30 31 32 32
11 11 10 11 11 12 13 14 14 14 14 14 15 15 16 17 18 18 18 19 19 20 21 22 23 23 24 24 25 26 27 28 29 29 30 31 32 32 32 32 32 33 33
12 12 13 13 13 14 15 15 15 16 16 16 17 17 18 19 19 19 19 20 21 22 23 25 25 25 26 26 27 27 28 29 29 29 31 32 32 33 33 33 34 35 35
14 15 15 16 16 16 17 17 17 17 17 18 18 19 19 20 20 21 22 22 23 24 25 25 26 26 27 27 28 28 29 29 30 31 31 32 33 33 33 34 35 36 37
15 16 16 16 17 18 18 19 19 18 19 20 20 21 21 21 22 23 24 24 25 25 26 27 28 28 28 28 28 30 31 32 32 32 32 33 33 35 35 36 37 38 39
16 16 17 17 18 18 19 19 20 20 20 21 22 22 23 23 23 24 24 25 26 26 27 28 29 29 29 29 30 31 32 33 33 33 34 35 35 36 37 38 38 39 40
18 18 18 19 19 20 20 21 21 21 21 22 23 23 23 24 24 25 25 26 27 28 28 29 29 30 31 31 32 32 33 33 34 35 36 37 37 38 39 39 40 41 42
19 19 19 19 19 20 20 20 20 20 21 22 23 23 24 24 25 25 26 27 27 28 29 30 30 31 31 32 32 33 34 35 35 36 36 37 38 39 40 41 41 42 43
20 20 20 20 20 20 19 20 20 21 21 22 23 24 25 25 26 26 26 27 28 29 30 30 31 31 32 32 33 33 34 35 36 36 37 38 39 39 40 40 41 42 43

GEFSMA_500_meanwind_222.txt.gz
Wind_Speed
5 4 3 4 4 4 4 4 4 4 3 3 3 3 3 3 3 2 2 2 2 2 2 1 1 1 1 2 2 2 2 2 2 3 4 4 5 5 5 6 6 6 6
5 4 4 3 3 2 3 3 3 2 2 1 1 1 2 2 2 2 2 2 2 2 2 2 1 1 2 2 3 3 3 3 3 4 5 5 6 6 7 7 7 7 7
5 4 3 2 2 2 1 1 1 1 1 1 1 1 1 1 2 2 2 2 2 2 3 3 3 3 3 3 3 4 3 4 5 5 5 6 7 8 8 8 9 9 9
6 5 3 2 2 1 1 1 1 0 1 1 2 2 2 2 2 2 2 3 3 3 3 4 4 4 4 4 5 5 5 5 5 6 7 7 8 9 9 10 10 10 10
6 6 4 4 3 3 3 2 2 2 2 2 2 2 2 3 3 3 3 3 4 4 5 5 6 6 6 6 6 6 6 7 7 7 7 7 8 9 10 10 11 11 11
7 6 5 4 4 3 3 2 3 3 3 3 3 3 3 3 4 4 4 5 5 6 6 7 8 8 8 7 7 7 7 7 8 9 9 9 9 10 10 11 12 12 12
6 6 5 4 4 3 3 3 4 4 5 5 4 5 4 4 5 5 5 6 6 7 7 8 9 9 9 9 9 8 8 9 9 10 10 10 10 11 11 12 12 13 14
6 6 5 5 4 4 4 5 5 5 5 6 6 6 5 6 6 6 7 7 7 8 9 10 10 11 10 10 10 10 11 10 10 10 10 11 11 12 12 13 13 14 14
8 7 6 5 5 4 5 5 5 6 6 6 6 7 7 7 7 8 8 8 9 10 10 11 10 10 11 11 11 11 11 10 11 11 12 12 13 13 14 15 15 15 15
9 7 6 6 6 6 6 6 6 6 7 6 7 8 8 8 8 9 9 9 9 11 11 11 11 11 12 12 12 12 12 12 12 13 13 14 15 15 15 16 17 17 17
10 8 8 8 7 7 7 6 6 7 7 7 8 8 9 9 9 10 10 10 11 11 12 12 12 13 12 13 12 13 13 13 14 14 14 15 16 17 18 18 18 19 19
11 10 9 9 8 8 8 8 7 7 8 8 9 9 9 10 10 11 11 11 11 12 13 13 14 14 13 13 13 14 14 14 15 16 17 17 18 18 19 20 20 20 20
11 10 10 9 9 9 9 8 8 9 9 9 10 11 11 12 12 12 12 12 13 14 14 14 14 15 15 14 14 14 15 16 17 18 19 19 19 20 20 20 21 22 22
12 11 11 10 10 10 9 9 9 10 10 10 11 12 13 14 14 14 13 14 15 15 15 15 15 16 16 15 15 15 16 18 19 19 19 20 20 21 21 21 22 23 24
11 11 11 11 11 10 10 9 10 11 12 12 12 13 14 14 15 15 15 16 16 15 15 16 15 17 17 16 16 17 17 19 20 20 21 21 21 22 22 23 24 25 25
12 11 11 12 12 12 11 11 11 12 12 13 13 13 13 14 15 15 16 16 16 16 16 16 17 18 18 17 18 19 20 20 20 21 21 22 23 24 24 25 26 27 27
13 12 12 12 12 12 12 11 11 12 12 13 13 14 14 15 15 15 16 17 17 18 18 19 19 19 20 20 21 21 22 22 23 23 24 24 25 26 27 28 29 29 29
13 12 12 13 13 12 12 13 13 13 14 14 15 15 16 17 17 17 18 18 19 19 19 20 20 20 22 23 23 24 24 24 25 26 26 27 28 29 29 30 30 29 30
13 14 14 14 14 14 14 14 15 15 15 16 16 16 17 18 18 18 18 19 20 20 21 21 22 22 23 23 25 26 26 26 27 27 28 28 29 30 31 31 31 31 31
14 14 14 14 15 15 16 16 17 17 17 17 17 18 18 19 19 20 20 20 21 21 22 22 23 24 25 26 27 28 28 28 28 29 29 29 30 31 31 32 32 32 33
15 15 16 16 16 17 17 17 17 17 18 18 18 19 20 20 20 20 21 21 22 23 24 24 25 25 26 27 28 29 29 29 30 30 30 29 30 31 31 32 33 34 35
16 17 17 17 17 17 17 17 17 18 18 18 19 20 20 20 20 21 22 23 23 24 24 25 26 27 28 28 28 29 30 29 30 30 30 31 31 31 32 33 33 35 36
18 18 18 18 17 16 16 17 18 19 19 19 19 19 19 20 21 22 23 23 23 24 25 26 26 27 27 28 29 30 30 30 30 31 31 32 32 32 33 34 35 36 36
19 19 19 18 19 18 17 18 18 19 19 19 20 20 21 22 23 23 23 23 24 25 26 26 27 27 28 29 30 31 31 31 31 32 32 33 33 34 34 35 36 37 37
19 20 20 19 18 18 18 19 19 19 19 20 21 22 23 23 23 24 24 24 25 26 27 27 28 29 30 30 30 31 31 31 32 32 33 34 34 35 35 36 37 37 38
21 21 20 19 19 19 19 19 19 19 20 21 22 23 24 24 25 25 26 26 27 28 29 29 29 30 31 31 31 31 32 33 33 33 34 35 36 36 36 37 38 39 39

GEFSMA_500_meanwind_228.txt.gz
Wind_Speed
6 5 5 4 4 4 4 4 4 3 4 4 3 3 2 2 1 1 1 1 1 1 1 0 0 0 1 1 2 3 3 3 3 4 4 5 6 6 7 7 8 7 8
5 5 5 4 3 3 2 3 3 2 2 2 1 1 1 1 1 1 1 1 0 1 1 2 2 2 3 2 3 3 4 5 5 6 6 6 7 7 8 8 9 9 9
5 4 4 3 2 2 1 2 2 2 1 1 0 0 1 1 2 2 3 2 2 3 3 2 3 4 4 4 4 4 5 6 6 7 7 7 8 8 9 9 10 10 11
6 4 4 3 2 1 1 1 1 1 1 2 2 2 2 2 2 3 3 4 3 4 3 4 3 4 5 5 6 5 6 6 7 7 7 8 9 9 10 10 11 11 12
6 5 4 3 3 1 1 1 0 1 2 2 2 3 3 3 4 4 4 4 4 4 4 5 5 5 6 7 7 7 7 7 7 8 8 8 9 10 11 11 12 12 13
5 4 3 3 3 2 1 0 1 1 2 2 2 3 4 4 4 5 5 6 6 5 6 6 6 6 6 7 8 8 8 8 8 9 9 10 10 11 11 12 13 13 14
4 3 3 2 2 2 1 1 1 2 2 3 3 4 5 5 5 5 6 6 7 7 7 7 7 7 7 8 8 9 9 9 10 10 10 11 11 12 13 13 14 14 14
4 3 2 2 2 2 1 1 2 3 3 3 4 5 5 6 6 7 7 8 8 9 9 9 8 9 9 9 10 10 10 10 11 11 11 11 12 13 14 14 14 15 16
5 4 3 2 2 2 3 3 4 4 4 4 5 5 6 6 7 8 8 9 9 10 10 9 9 10 11 11 11 11 11 11 12 12 12 12 13 13 14 15 15 16 17
5 4 4 3 3 3 4 4 4 5 6 6 6 6 6 7 7 8 9 10 10 10 10 10 10 10 11 11 12 12 12 12 13 13 13 14 14 15 16 16 17 17 18
5 5 4 4 4 4 5 6 6 6 7 7 6 6 7 7 8 8 9 10 10 11 11 11 11 12 12 13 13 13 13 13 14 14 15 15 16 17 17 18 19 19 20
7 6 5 5 5 6 6 6 6 7 8 7 7 7 8 8 9 10 11 11 11 11 11 11 12 12 12 12 13 13 14 14 14 15 16 16 17 18 18 18 19 20 21
7 6 6 6 6 6 6 7 7 8 8 8 8 8 9 10 10 11 12 12 12 12 12 12 13 13 13 14 14 14 15 15 15 16 16 17 18 18 19 20 20 21 22
7 6 6 6 6 6 7 7 8 8 9 9 9 10 11 11 11 12 13 13 13 13 13 13 13 14 14 14 14 16 16 16 17 17 18 19 20 21 22 22 22 23 23
8 7 7 7 7 8 8 9 9 9 10 10 10 11 12 11 12 12 13 13 13 13 14 14 14 15 15 15 16 17 17 18 19 19 20 21 22 22 23 24 25 25 25
10 9 8 9 9 9 9 10 10 10 10 10 10 10 11 11 12 12 13 14 14 15 15 15 16 17 17 17 18 18 19 19 20 20 21 22 22 23 24 25 26 27 27
10 10 9 9 9 9 9 10 11 11 10 10 10 11 12 12 13 13 14 14 15 15 15 16 17 17 18 18 19 19 19 20 21 21 22 23 23 24 25 26 27 27 28
11 11 10 10 10 10 11 11 11 11 12 12 12 12 13 13 14 14 15 15 15 15 16 16 18 19 19 19 20 20 21 21 23 24 24 25 26 27 27 27 27 29 30
11 11 11 12 12 12 12 12 12 12 13 13 14 14 14 14 15 15 16 16 17 17 18 18 19 19 20 21 22 22 23 24 24 25 26 27 27 28 28 29 30 30 31
12 13 13 13 13 13 13 14 13 13 13 13 13 14 15 15 16 16 16 17 18 18 18 19 20 20 21 22 23 24 25 25 26 27 27 27 27 28 29 30 31 31 32
14 14 14 15 15 14 14 14 14 13 14 14 14 15 15 16 16 17 17 18 19 20 21 21 22 23 23 24 24 25 26 26 27 28 28 28 29 29 30 31 31 32 33
15 15 15 15 15 15 15 15 14 14 15 15 16 16 16 16 17 17 18 19 20 21 22 22 23 23 24 25 26 27 27 28 28 28 29 30 31 31 32 32 33 33 34
16 16 16 16 16 16 16 15 15 16 16 16 16 16 16 17 17 18 19 20 21 21 22 23 24 24 25 26 27 28 29 30 30 30 30 31 31 32 33 33 34 34 35
17 17 17 17 17 17 17 16 16 16 16 17 17 17 18 18 18 19 20 21 21 22 23 24 25 26 27 28 28 29 29 30 31 31 32 32 32 33 34 35 35 36 36
17 17 17 18 18 18 17 18 18 18 18 18 18 18 19 19 20 20 21 22 22 23 23 25 25 26 27 28 28 29 30 31 31 32 32 33 33 33 34 35 35 36 36
18 17 18 19 19 19 19 18 19 19 20 19 19 20 20 21 21 22 22 23 23 24 25 26 26 27 28 29 29 29 30 31 31 32 32 33 33 34 34 35 35 36 37

GEFSMA_500_meanwind_234.txt.gz
Wind_Speed
5 5 5 4 4 3 3 2 2 1 1 1 0 1 1 1 1 1 1 1 1 2 2 3 3 3 2 2 2 2 2 3 4 4 5 6 6 7 7 7 7 7 7
4 4 4 3 3 3 3 2 2 2 1 0 0 1 1 1 1 2 2 2 3 3 4 3 4 4 4 4 3 3 4 4 5 6 6 7 8 8 8 8 8 9 9
5 4 2 2 2 2 1 1 1 1 1 1 1 2 2 2 2 3 3 4 4 4 4 4 5 5 6 6 5 6 5 6 6 7 7 8 8 9 10 9 9 10 10
3 2 2 2 2 1 1 1 1 1 2 2 2 3 3 4 3 4 4 5 5 5 5 5 6 6 7 7 7 7 7 7 8 8 8 8 9 10 11 11 11 10 10
3 2 2 2 2 2 2 2 2 2 3 3 3 3 4 4 5 5 5 5 5 6 6 7 7 8 8 8 8 8 8 9 10 10 10 10 11 11 11 11 12 12 12
4 3 2 2 3 3 3 2 2 2 2 3 4 4 4 5 6 6 6 6 6 7 8 8 9 9 10 9 9 9 10 11 11 11 11 12 12 12 12 13 13 13 14
6 4 3 3 3 4 4 3 2 2 3 4 5 5 5 6 6 6 7 7 8 8 8 9 10 10 11 12 11 12 12 12 12 12 12 13 14 14 14 14 14 15 15
7 6 4 4 4 4 4 4 4 4 4 5 6 6 6 7 7 7 7 7 8 9 9 10 10 11 12 12 12 12 12 12 13 13 14 14 15 15 16 16 16 16 17
6 6 5 5 5 4 4 4 4 5 6 6 7 7 8 8 9 8 8 8 9 10 10 10 11 11 11 11 12 13 14 14 15 15 15 16 16 16 17 17 18 18 18
7 6 6 6 6 5 5 5 6 6 7 8 8 8 9 10 10 10 10 10 10 11 11 12 12 12 13 13 13 14 15 15 16 16 16 16 16 17 17 17 19 19 20
8 7 7 7 6 6 6 7 8 8 8 9 9 10 10 10 10 11 11 11 11 12 12 13 14 14 14 14 15 15 15 16 16 16 16 17 17 18 18 18 19 19 20
9 8 8 8 8 8 8 9 9 9 10 11 11 11 11 11 11 11 12 13 13 14 14 14 15 15 16 16 16 16 16 17 17 17 18 18 19 19 20 20 21 21 21
10 9 9 8 8 8 9 9 10 11 12 12 12 11 12 12 13 13 13 13 14 14 15 16 15 16 17 17 17 17 18 19 19 20 20 20 20 21 22 22 23 23 24
10 10 9 9 9 9 10 10 11 12 13 13 13 13 13 13 13 13 13 14 14 15 15 16 16 16 17 18 19 19 19 20 21 21 22 22 23 24 24 24 25 25 26
11 11 10 10 10 10 11 11 12 12 12 12 12 12 13 13 13 14 14 15 15 16 17 17 18 18 19 19 20 20 20 21 21 22 23 24 25 25 25 26 26 27 27
11 11 11 11 11 11 11 12 13 13 13 13 12 12 13 13 14 14 15 15 16 17 18 19 19 19 20 21 21 21 21 22 22 23 24 24 25 25 26 27 28 27 27
12 11 12 11 11 11 12 12 13 13 14 14 13 13 13 13 14 15 15 16 17 17 18 19 19 20 20 21 21 21 22 23 23 24 24 25 26 26 27 28 29 29 30
12 12 12 12 12 12 12 12 13 13 14 14 14 14 14 14 15 16 17 17 18 18 18 19 19 19 20 21 21 22 22 24 24 24 24 25 25 27 28 29 29 30 31
12 13 13 13 12 13 13 13 14 15 15 15 16 16 16 16 17 17 17 18 18 18 18 19 19 20 21 21 22 23 24 24 25 26 26 27 28 29 29 29 30 31 32
13 14 14 14 14 14 14 15 15 16 16 16 17 17 18 18 17 17 18 18 19 19 20 20 21 21 22 23 23 24 25 26 26 27 28 29 30 30 30 31 32 33 33
14 14 14 14 15 15 14 15 16 16 17 17 17 18 18 18 17 18 18 19 20 20 21 21 22 23 24 24 25 26 27 27 28 28 29 30 30 31 32 32 33 33 34
15 15 15 16 16 16 15 16 17 17 18 18 18 18 18 18 18 19 20 20 20 21 22 22 23 24 24 25 26 26 27 27 29 30 31 30 31 32 32 33 33 34 35
16 16 16 17 17 17 18 18 17 18 19 19 19 19 19 19 19 20 20 20 21 22 22 23 23 24 24 25 26 27 28 29 30 30 30 31 32 32 33 33 34 35 35
17 17 17 17 18 19 19 19 19 19 20 20 20 20 20 21 21 21 21 22 22 22 23 23 24 25 26 26 27 28 29 29 30 31 32 32 33 33 32 33 34 34 35
18 18 18 18 19 20 20 20 20 21 21 21 20 21 21 22 22 23 23 23 23 24 25 26 26 27 28 28 29 29 29 30 31 32 32 32 33 33 33 33 34 34 35
19 19 19 20 20 20 20 20 21 21 21 21 21 22 22 23 24 23 23 24 24 25 26 27 27 28 29 29 30 30 30 31 32 33 33 33 34 34 34 35 35 35 35

GEFSMA_500_meanwind_240.txt.gz
Wind_Speed
6 5 4 4 4 3 3 2 2 2 2 2 1 1 1 1 0 1 1 0 0 1 1 1 1 1 2 2 2 4 4 5 5 6 6 6 7 8 8 8 9 10 10
5 4 3 3 3 3 3 2 1 2 1 1 1 1 1 1 1 1 1 1 1 1 2 2 2 3 3 3 3 3 4 5 6 5 6 6 7 7 9 10 10 11 11
5 4 3 3 3 3 2 2 1 1 1 1 1 1 2 2 2 2 2 2 3 3 3 3 3 4 5 5 5 4 6 6 6 7 7 7 9 9 9 10 11 12 13
5 4 3 3 2 3 3 3 2 1 0 0 0 1 3 3 3 3 3 4 3 4 4 5 5 5 6 7 7 7 7 8 8 8 8 9 9 10 10 11 11 12 13
4 4 3 3 2 2 2 3 2 3 2 1 1 2 3 3 3 4 4 4 4 5 5 6 6 7 7 8 9 9 10 10 10 10 10 10 11 11 12 13 13 13 13
4 4 2 2 2 1 2 2 3 3 3 2 2 3 4 4 4 5 5 5 5 6 7 7 8 8 8 9 9 10 11 11 11 12 12 12 12 12 13 14 14 14 14
5 4 4 3 2 2 2 2 3 3 3 4 4 4 5 5 6 6 7 7 7 8 8 8 9 9 9 9 10 10 11 11 12 12 12 13 13 14 14 15 15 16 16
4 4 4 3 2 3 3 3 3 4 5 5 5 5 5 6 7 7 7 8 8 8 8 9 9 9 10 10 11 11 11 11 12 13 13 14 15 16 15 15 16 17 18
5 5 4 3 3 4 4 4 4 5 5 6 6 6 7 7 7 7 7 8 8 9 10 10 10 10 10 11 11 12 13 14 14 14 14 16 16 16 16 16 16 17 18
5 4 5 4 4 4 4 5 5 5 6 6 7 7 8 8 8 8 9 9 9 9 10 11 11 11 12 12 13 14 14 15 16 16 16 17 17 17 18 18 18 18 19
6 6 6 5 5 5 5 5 6 6 7 7 8 8 9 10 10 10 10 10 11 11 11 11 12 13 13 14 14 15 16 16 17 18 18 18 18 18 18 19 19 19 19
7 7 6 6 5 5 6 7 7 7 8 9 9 10 11 11 11 11 11 11 11 12 12 13 13 14 14 15 15 16 16 17 18 18 19 19 20 20 20 20 21 21 21
8 8 7 7 7 7 7 8 8 9 9 10 10 11 12 12 12 12 13 12 13 13 13 14 14 15 16 16 17 17 18 18 18 19 20 20 21 21 21 22 23 24 24
9 9 9 8 8 9 9 9 9 9 10 11 11 12 12 13 13 13 13 14 14 15 15 15 16 17 17 17 18 19 19 19 18 19 20 20 22 22 23 24 24 25 26
10 10 10 9 9 9 9 9 10 10 10 11 12 12 13 13 13 13 13 14 15 16 16 16 17 18 18 19 19 20 20 19 20 21 22 23 24 24 25 25 25 26 27
11 10 10 10 10 9 10 10 10 10 11 12 13 13 13 12 12 13 14 15 15 16 17 18 18 19 19 20 20 21 21 21 22 23 24 24 25 25 25 25 26 27 28
11 10 10 10 10 10 10 11 10 11 12 13 13 14 13 13 13 14 15 15 15 16 17 19 19 19 20 21 21 21 23 23 23 23 24 25 26 26 27 27 28 29 29
11 11 11 11 11 11 12 12 11 11 12 14 14 14 14 14 14 15 15 15 16 17 18 19 20 20 20 20 21 22 23 24 24 24 24 25 25 26 26 27 27 28 28
12 12 12 12 12 13 13 13 13 13 14 15 15 15 15 15 16 16 16 16 17 17 18 19 19 20 20 21 22 22 23 24 24 24 24 25 25 26 27 27 28 28 29
13 13 13 14 14 14 14 15 16 15 15 16 16 15 15 16 16 16 17 17 17 18 18 19 19 20 21 22 23 23 23 24 25 25 25 26 27 28 28 29 30 30 31
14 15 14 14 15 15 16 17 18 18 17 17 17 17 17 17 17 17 17 18 19 19 19 20 21 21 22 23 23 24 25 25 26 26 27 27 27 28 28 29 30 31 32
15 16 16 16 16 17 18 19 19 19 19 18 18 18 18 18 18 19 19 19 19 20 20 21 22 22 23 24 24 25 25 26 26 27 27 27 28 29 30 31 32 32 33
16 17 19 18 18 18 19 20 20 20 19 19 18 18 19 19 19 20 20 20 20 21 21 22 22 23 23 23 24 25 26 26 27 27 28 28 29 30 31 31 32 33 34
18 19 20 20 20 20 20 20 20 20 20 19 19 20 20 20 20 21 21 21 22 22 22 23 24 24 24 24 25 26 27 27 27 28 29 30 31 31 32 32 33 34 34
19 19 20 20 20 21 21 21 21 21 20 21 21 21 20 21 21 22 22 22 23 23 24 25 25 26 26 26 27 28 28 28 29 29 30 31 32 32 33 33 33 33 33
19 19 20 20 21 21 21 21 21 21 21 22 22 21 21 22 22 22 22 23 23 24 25 25 25 26 26 27 28 29 29 30 30 31 32 32 32 33 33 33 33 34 35

GEFSMA_500_meanwind_246.txt.gz
Wind_Speed
5 4 4 4 4 4 4 3 3 3 2 1 1 1 1 1 2 1 1 1 1 1 2 2 2 3 3 3 3 3 3 4 5 6 6 6 6 7 7 8 9 9 9
6 5 4 3 3 3 3 3 3 2 2 2 1 1 1 2 2 2 2 2 3 2 2 2 3 3 3 3 4 4 4 4 5 6 6 7 7 8 8 9 10 10 11
6 5 4 3 2 2 2 2 2 2 2 2 2 2 2 2 2 3 3 3 3 3 3 4 4 5 5 6 6 5 5 5 6 6 7 8 8 9 9 10 11 12 12
4 4 3 3 3 2 2 2 2 3 3 3 3 2 2 3 3 4 4 4 4 4 4 5 6 6 7 7 6 6 6 7 8 8 9 9 10 10 10 11 12 13 13
4 4 4 3 3 3 3 3 3 3 3 4 4 4 3 3 4 4 4 4 5 5 5 6 6 6 7 7 8 8 8 9 9 10 11 11 11 11 11 12 12 13 14
4 4 4 4 4 3 3 3 4 4 4 5 5 5 4 4 4 4 4 5 5 6 6 6 7 7 8 9 9 10 10 10 11 11 11 12 12 12 12 13 13 14 14
5 5 5 4 4 4 4 4 4 5 5 6 6 5 5 5 5 5 5 6 6 7 7 8 9 9 10 9 10 10 11 12 12 11 12 12 13 13 13 14 15 15 16
6 6 6 5 5 5 5 5 5 6 6 7 7 7 7 6 6 6 6 7 7 7 7 8 9 10 10 10 10 11 11 12 12 13 13 13 13 14 15 15 15 15 16
7 7 7 7 6 6 6 5 6 6 6 7 8 8 8 8 7 7 8 8 8 9 10 10 10 10 11 11 11 12 12 13 13 14 14 14 14 15 16 16 16 15 16
8 9 8 8 8 7 7 7 7 7 8 9 9 9 9 9 9 8 9 10 10 11 11 12 12 12 12 11 12 13 14 14 14 14 15 15 16 16 17 16 17 18 18
9 9 9 9 9 9 9 9 9 9 9 9 10 10 11 10 11 11 11 11 11 12 12 12 13 13 12 13 13 14 14 15 15 15 15 15 16 16 16 17 18 18 19
10 10 10 10 10 10 10 10 10 10 10 10 10 10 11 11 11 12 12 12 13 14 14 13 13 13 13 14 14 14 15 15 16 16 16 16 17 17 18 18 19 19 20
10 11 11 11 11 11 11 11 10 10 10 11 11 12 12 12 13 13 14 14 14 15 15 15 14 15 15 16 16 16 16 17 18 18 17 18 18 19 19 19 20 21 21
11 12 11 11 11 11 11 11 11 11 12 12 12 13 13 14 14 14 14 14 14 15 15 16 16 16 16 17 17 18 18 18 19 20 20 20 21 21 21 21 22 23 23
12 12 12 12 12 12 12 12 12 12 12 13 13 14 14 15 15 15 14 14 15 15 15 16 16 16 17 18 18 19 20 20 21 21 22 22 22 22 22 23 24 24 24
12 12 12 13 13 13 13 13 13 13 13 14 14 14 14 15 15 15 15 16 16 16 17 17 17 17 18 18 19 19 20 21 21 22 23 23 24 24 24 25 25 25 25
13 13 13 13 13 14 14 14 14 14 14 15 15 15 15 15 15 15 16 16 16 17 17 17 17 18 18 19 19 19 20 20 21 22 23 24 25 25 25 26 26 26 26
14 14 14 14 14 14 15 15 15 15 16 15 15 15 16 15 16 16 17 17 18 18 18 19 19 20 19 20 19 19 20 20 21 22 22 23 23 24 25 25 26 25 25
14 15 15 15 15 16 16 17 17 17 17 16 16 16 17 17 17 17 18 18 18 19 19 19 20 20 20 20 20 20 21 21 22 22 22 22 23 23 24 24 24 25 25
14 15 15 16 16 16 17 18 17 17 17 17 17 17 17 17 17 18 18 18 19 19 19 20 21 20 21 21 21 20 21 21 22 22 23 23 23 23 23 24 25 26 27
15 16 16 17 17 17 18 18 18 18 18 19 19 19 19 18 18 19 19 19 20 20 21 21 21 21 21 21 21 21 22 22 23 23 24 24 24 24 24 25 26 27 29
16 17 17 18 18 18 19 19 19 19 19 20 20 19 19 19 19 19 20 21 21 21 21 21 22 22 22 22 22 23 23 23 24 24 25 25 26 26 27 28 28 29 31
17 18 18 18 19 20 20 20 20 20 21 21 20 20 19 20 20 20 21 21 22 22 22 23 23 23 23 23 24 24 25 25 26 26 27 27 28 28 29 29 30 30 31
18 18 18 19 19 20 20 20 21 21 21 21 21 21 20 20 21 21 22 22 23 23 23 24 24 24 24 24 25 26 26 26 27 28 29 29 30 30 30 30 31 31 31
18 18 18 19 19 19 20 20 21 22 22 21 21 21 21 22 22 22 23 23 23 24 24 24 25 26 26 26 26 27 28 28 29 30 30 31 31 31 30 30 30 31 31
18 19 19 19 19 20 21 21 21 22 22 22 22 23 23 23 24 24 24 24 24 24 25 25 25 27 27 27 28 29 29 30 30 30 31 31 31 31 31 31 31 31 32

GEFSMA_500_meanwind_252.txt.gz
Wind_Speed
7 6 5 5 5 4 4 4 3 3 2 2 2 1 0 1 2 3 3 4 5 5 5 4 5 5 5 5 5 6 6 7 7 8 8 8 8 8 9 9 9 9 10
6 6 5 5 4 3 4 4 3 3 2 1 1 1 1 2 3 4 5 4 4 5 5 5 5 5 5 6 6 6 7 8 8 8 8 9 9 9 10 10 10 11 11
6 6 5 5 4 4 4 3 3 3 2 2 2 3 3 4 4 4 4 5 5 4 5 5 6 6 7 7 7 8 8 7 8 8 9 9 10 10 11 11 11 12 12
5 5 4 4 4 4 3 3 2 2 2 3 3 4 5 5 5 5 5 6 6 6 5 6 7 7 8 8 9 10 9 9 9 9 10 10 11 11 12 12 12 13 13
4 4 4 4 4 3 3 3 3 2 3 3 4 4 5 6 6 6 6 7 7 6 6 7 8 9 9 9 10 10 10 11 11 11 11 11 12 12 12 13 13 14 14
4 4 3 3 3 3 3 3 3 3 3 4 4 5 5 6 6 6 6 6 7 7 7 8 8 9 9 9 10 11 11 11 12 11 12 12 13 13 14 14 14 15 15
5 4 3 3 3 3 3 4 4 4 4 5 5 5 5 6 6 6 6 5 5 7 8 9 9 9 10 10 11 11 12 12 13 13 14 14 15 15 15 15 16 16 16
6 5 5 4 4 4 4 4 4 4 5 6 6 5 6 5 6 6 6 6 6 7 8 9 9 9 10 11 12 12 12 13 14 15 15 15 15 15 16 17 16 17 17
6 6 6 5 5 5 5 5 5 5 6 6 6 7 7 7 7 7 7 7 8 8 9 9 10 11 11 11 11 12 13 15 15 16 16 16 16 16 17 16 16 17 18
7 7 7 6 6 5 6 5 5 5 6 7 7 7 7 7 7 8 8 8 9 9 9 11 12 12 12 12 12 13 13 14 15 16 16 16 16 17 16 16 16 17 18
7 7 7 7 7 7 7 7 6 7 7 8 7 8 8 8 9 9 9 10 10 11 12 12 12 12 12 13 14 14 15 15 16 15 16 17 17 18 17 17 18 18 18
8 8 8 8 7 8 8 8 9 8 8 8 8 9 9 8 9 10 10 11 12 13 13 13 13 13 14 15 15 16 17 17 17 16 17 17 17 17 18 19 19 19 19
9 8 8 8 8 8 9 9 9 9 9 9 9 9 9 10 10 10 10 11 12 12 13 13 14 14 15 16 16 17 18 19 18 18 18 18 19 20 20 20 20 20 20
9 9 9 9 9 9 10 10 10 10 10 10 10 10 10 11 11 11 11 11 12 12 12 13 13 13 14 15 16 17 17 18 19 19 19 20 20 20 21 21 22 23 23
9 9 10 10 10 11 11 11 11 11 11 11 11 11 11 11 11 12 12 12 12 13 13 14 14 14 15 15 15 16 17 17 18 19 19 20 21 21 21 22 23 24 25
9 9 10 10 11 12 12 12 12 12 11 11 11 12 12 12 12 12 12 13 13 13 14 15 15 15 15 15 16 17 17 18 18 18 20 20 21 21 22 23 23 24 24
10 10 11 11 12 12 12 13 13 12 12 12 12 12 13 13 12 13 13 13 13 14 15 15 16 16 17 17 17 17 18 18 18 19 19 20 20 21 22 22 22 23 24
11 11 12 12 12 12 13 13 13 13 13 13 13 13 14 13 13 13 13 13 14 15 15 16 17 17 18 17 17 17 18 18 19 19 19 20 20 21 22 22 23 23 24
12 12 13 13 13 13 13 13 13 13 13 13 13 14 14 13 13 14 14 14 14 15 15 16 17 18 19 18 18 17 18 19 19 20 20 21 22 22 22 23 23 24 25
13 13 13 13 14 14 14 13 14 13 13 14 14 14 14 14 14 15 15 14 15 15 16 17 18 19 19 19 19 19 19 20 20 21 21 22 22 22 23 24 25 26 27
13 13 14 14 14 14 14 14 14 14 15 15 15 15 15 16 16 16 16 15 16 16 17 18 19 19 20 19 19 19 20 20 20 21 21 21 22 22 23 24 25 26 27
13 14 14 15 15 15 15 15 15 15 16 16 16 16 17 17 17 16 16 17 17 18 18 19 19 20 20 20 20 20 21 20 21 21 22 22 23 24 25 26 27 28 29
14 15 15 15 16 16 16 16 16 16 16 17 17 17 17 17 17 18 18 18 18 19 20 20 20 21 21 21 21 21 22 22 22 23 23 24 25 26 26 27 28 29 30
16 15 16 17 17 17 17 17 17 17 17 18 19 19 18 18 18 19 19 19 20 20 20 20 21 21 22 21 22 22 23 23 24 24 25 26 27 27 27 28 29 30 31
17 18 18 18 18 18 18 17 17 17 18 18 18 19 19 19 19 20 20 20 20 21 21 21 21 22 23 23 24 24 24 24 25 26 26 27 28 28 28 29 30 31 32
18 19 19 19 18 19 18 18 17 17 17 18 19 20 20 20 20 21 21 21 21 21 21 21 22 23 23 24 24 25 25 26 26 27 28 28 28 29 29 30 31 31 32

GEFSMA_500_meanwind_258.txt.gz
Wind_Speed
7 6 6 6 5 5 4 4 4 3 3 2 1 1 1 2 3 3 3 4 4 4 5 5 5 6 7 7 7 7 8 8 8 9 8 8 9 9 8 9 10 10 10
7 7 6 5 5 4 4 3 3 3 2 2 2 1 2 3 3 3 4 4 4 5 6 7 7 8 8 8 7 7 8 9 9 9 9 9 10 11 11 11 12 11 12
6 6 5 5 4 4 3 3 2 2 2 2 3 3 3 3 4 4 4 5 5 5 6 6 7 8 9 9 8 9 9 10 11 11 11 11 11 12 12 12 12 12 12
5 4 4 3 3 3 3 2 2 2 2 3 3 3 3 4 4 5 5 5 6 6 6 6 7 8 9 9 9 10 11 12 12 12 12 13 13 13 12 12 13 13 14
4 3 3 3 2 2 2 2 2 3 3 3 4 4 4 4 5 5 5 5 6 7 8 8 8 8 9 10 11 11 13 13 13 13 14 14 14 14 14 14 14 14 14
4 3 3 2 2 3 3 3 3 3 4 4 4 5 5 5 5 5 6 5 6 7 9 9 9 9 10 11 12 12 13 14 14 15 15 15 15 15 16 16 16 16 17
5 4 4 4 3 4 4 3 3 4 4 4 5 5 6 6 5 6 7 6 7 8 9 9 9 10 11 12 12 12 13 14 15 15 16 16 16 16 16 16 17 17 18
4 4 5 5 5 4 5 4 4 4 5 5 5 6 6 7 6 7 7 7 8 9 9 9 10 11 12 12 13 13 14 14 15 15 16 16 17 17 17 17 17 18 18
4 4 6 6 6 6 6 6 5 5 6 6 6 7 7 8 8 7 8 8 8 9 10 11 12 12 13 13 14 15 15 16 16 16 16 17 17 17 18 18 18 18 18
6 5 6 7 7 7 7 7 7 6 7 7 7 8 8 9 9 9 9 9 9 9 10 11 11 12 13 14 15 15 16 16 17 18 18 19 19 19 19 20 21 20 19
6 6 7 7 8 8 8 8 8 8 8 8 9 9 10 10 10 10 9 9 10 10 11 11 11 12 13 14 15 16 17 17 18 18 19 19 20 21 21 21 21 20 20
7 6 7 8 8 8 8 8 9 9 9 9 10 10 10 10 11 10 10 10 11 12 12 12 12 13 14 15 15 16 17 18 18 19 20 21 21 21 21 21 21 21 21
7 7 8 8 8 8 9 9 10 10 10 10 10 10 10 11 11 11 11 11 12 12 13 13 14 15 15 15 16 16 17 17 17 18 19 20 20 21 21 21 22 22 22
7 8 9 9 9 9 9 10 10 10 11 11 12 11 11 12 12 12 12 13 13 13 14 15 16 16 17 17 17 17 17 17 18 19 19 20 20 20 21 22 22 22 23
8 9 9 10 10 10 10 10 10 11 11 11 12 12 12 13 13 13 14 14 14 15 15 16 17 18 18 18 18 18 17 17 18 19 20 21 21 21 22 23 23 23 23
9 10 10 10 10 10 10 11 11 11 11 12 13 13 13 14 14 14 15 15 15 16 16 17 17 18 18 18 18 18 19 19 19 20 21 21 21 21 22 22 23 24 24
10 10 10 11 11 10 10 11 11 11 12 12 13 13 14 14 15 14 14 14 15 16 16 16 17 18 19 19 19 19 19 20 20 20 20 21 21 22 22 22 22 23 24
10 11 11 11 11 11 11 11 12 12 13 13 13 13 14 15 14 14 15 15 15 16 16 17 18 18 18 19 19 20 20 20 21 21 21 22 22 22 22 22 23 24 25
11 11 12 12 12 12 12 12 13 13 13 14 14 14 14 15 15 15 15 16 16 17 17 18 18 18 18 19 20 20 21 21 21 21 21 21 22 22 23 23 25 25 26
12 12 12 13 13 13 13 13 14 14 15 15 15 15 15 15 15 15 16 16 17 17 18 19 19 19 19 19 20 21 22 21 22 21 21 21 22 22 23 24 25 26 27
13 13 13 13 14 14 14 14 15 15 15 15 15 15 15 16 16 17 17 17 18 18 19 20 20 20 20 20 21 21 22 22 22 23 23 22 23 23 25 26 27 28 29
14 15 14 15 15 15 15 16 16 16 16 16 16 16 16 16 17 17 18 18 19 19 20 21 21 21 21 21 21 22 22 23 22 23 23 24 24 25 26 27 28 28 29
16 16 16 16 16 17 17 17 17 17 17 17 17 17 17 17 17 18 18 19 19 20 20 21 21 22 22 21 22 22 23 24 24 24 24 25 25 26 27 28 28 29 29
17 17 17 17 17 18 18 18 18 18 18 18 18 19 19 19 18 18 19 19 19 20 20 21 22 22 22 22 23 23 24 24 25 25 26 26 26 26 27 28 29 30 31
18 18 18 18 18 19 19 19 20 20 20 20 20 21 21 21 20 21 21 21 21 22 22 23 23 23 24 24 24 24 25 25 26 26 27 27 27 28 28 29 30 31 32
19 20 20 20 20 20 20 20 21 21 22 22 22 22 22 22 22 23 23 24 24 24 24 24 24 24 25 25 25 26 26 27 27 28 28 28 29 29 30 30 31 32 32

GEFSMA_500_meanwind_264.txt.gz
Wind_Speed
7 7 7 6 6 5 4 3 4 4 3 2 1 1 1 2 2 3 3 4 4 4 4 5 5 6 7 8 9 9 9 9 9 9 9 9 9 10 11 10 10 10 10
6 5 6 5 5 5 4 3 3 3 2 1 1 1 2 2 2 3 3 4 5 5 5 5 6 7 7 8 9 9 9 9 9 9 10 11 11 11 11 12 12 12 12
6 5 5 4 4 3 3 3 3 2 1 1 1 1 1 2 2 3 4 4 5 5 6 6 6 6 7 8 8 9 9 10 10 10 11 12 12 12 12 12 13 13 13
6 5 4 3 3 2 2 2 2 2 1 1 1 2 2 2 3 3 4 4 5 5 6 6 6 7 7 8 8 8 9 10 11 12 12 13 14 14 13 13 14 14 14
6 6 4 3 3 2 2 2 2 2 2 2 2 2 3 3 3 4 5 5 6 6 6 7 7 7 8 9 9 9 10 12 12 13 14 14 15 15 15 15 15 16 15
6 6 5 4 3 3 3 2 2 2 2 3 3 3 4 4 5 6 6 6 7 7 7 7 8 8 8 9 10 11 11 13 15 15 15 15 15 15 15 15 16 16 16
5 6 5 4 4 4 4 3 3 3 3 4 5 5 5 5 6 6 6 6 7 8 8 8 8 9 9 10 11 12 13 14 15 16 16 16 16 16 16 16 16 17 17
5 5 4 4 4 4 4 4 4 4 4 5 5 6 6 6 6 7 7 7 7 7 8 8 9 9 10 11 11 12 13 14 15 15 16 17 17 17 18 18 18 18 19
5 5 5 4 5 5 5 5 5 5 6 5 5 6 7 7 7 7 7 7 8 8 8 9 9 10 11 12 12 13 14 15 15 15 16 18 18 18 18 19 19 19 20
5 5 6 6 6 6 6 6 6 7 7 6 6 6 7 8 9 9 8 8 9 9 10 10 10 10 11 12 13 14 14 15 16 16 17 18 19 19 19 19 19 20 20
6 6 6 7 7 7 7 7 7 7 7 7 7 7 8 9 10 10 9 9 9 10 10 11 11 11 12 13 14 15 16 16 17 17 18 18 19 19 19 19 20 20 21
6 6 6 6 7 7 7 7 7 7 7 7 7 8 9 10 10 10 10 10 11 11 11 11 12 12 13 14 15 16 16 17 17 17 17 18 19 20 20 20 21 21 21
7 7 7 6 7 7 7 7 8 8 8 8 8 9 9 10 10 11 11 12 12 12 13 13 14 14 14 15 16 17 17 18 18 18 18 18 19 20 21 21 21 21 22
8 8 7 7 7 7 7 7 8 8 8 9 9 10 10 11 11 11 12 13 13 14 14 15 15 16 16 17 17 17 18 19 19 18 19 19 19 20 20 21 21 21 21
7 7 7 7 8 7 7 8 9 9 9 9 10 10 11 12 12 12 13 13 14 15 16 16 17 17 18 18 18 18 18 18 19 19 20 20 20 20 20 21 21 20 22
7 7 7 8 8 8 9 9 9 10 10 10 11 11 12 12 13 13 13 14 15 16 17 17 17 18 18 18 19 19 19 19 19 20 20 20 20 20 20 20 20 20 21
7 7 8 8 9 9 9 10 10 11 11 11 11 12 13 13 14 14 14 15 15 16 17 17 17 17 18 18 18 19 20 19 19 20 20 20 20 20 20 20 20 21 22
8 8 8 9 9 10 10 11 12 12 12 12 12 13 14 14 15 15 15 15 16 16 17 17 18 18 18 18 19 20 20 20 20 20 20 20 20 20 20 20 21 22 22
9 9 9 9 10 11 11 12 12 13 13 13 14 14 15 15 15 16 16 16 16 17 17 18 18 19 19 20 20 21 21 21 21 21 21 20 20 20 21 21 22 23 23
11 11 11 11 11 12 12 13 13 14 14 15 16 16 16 17 16 17 17 17 18 18 19 19 20 20 20 21 21 21 21 22 22 22 22 21 21 22 22 23 24 24 24
13 13 13 13 13 12 13 14 15 15 15 16 17 17 17 17 17 18 18 19 19 20 20 21 21 22 21 22 21 22 22 22 22 22 23 23 23 23 24 24 24 25 25
14 14 15 15 15 15 15 15 16 16 17 18 18 18 18 18 18 18 19 20 20 20 21 21 22 22 22 22 22 23 23 23 23 23 23 23 24 24 25 25 25 26 27
16 16 16 17 17 17 17 17 17 18 18 19 19 19 20 20 19 20 21 21 21 22 22 23 22 22 22 23 23 23 24 24 24 24 23 23 24 24 26 26 26 27 28
18 18 18 18 18 18 18 18 18 18 19 20 21 21 21 21 21 22 22 22 23 24 24 24 24 23 23 23 24 24 24 24 25 25 25 25 25 26 26 27 27 28 29
19 19 19 19 19 19 19 19 19 20 20 21 22 22 22 22 23 23 23 24 24 25 25 25 24 24 24 25 25 25 25 25 25 25 25 26 26 26 27 27 27 28 29
21 20 20 20 21 21 21 20 20 21 22 23 23 23 24 24 24 24 25 25 25 26 26 26 25 25 25 26 26 26 26 26 26 26 26 27 27 27 28 28 28 29 29